BOX594 EDDP-RJAA

Flight info

Callsign BOX594
Flight time 12h 28m
Altitude 31000
Route DRN2E DRN Z21 OMELO DCT EVIKU DCT OMIFU DCT MAKAL DCT PITOK DCT BADOR DCT ROMAG DCT UDROS DCT BAMUP DCT ROLIN/N0485F330 DCT TAGAR DCT BT DCT BARAD M747 LUSAL N701 LARGI DCT OTBOR/K0891F330 N147 ELAHA Z621 ARBOL M610 TOMGO/K0880F350 DCT AZITI DCT RULAD/K0878S1070 A343 POSOT B215 FKG W188 LIKMI W270 DKO W69 GUVBA/K0872S1130 W69 HUR B339 LADIX W34 VAPGU W100 ORAVA W201 UNSEK A326 DONVO G597 AGAVO/N0475F370 Y644 EGOBA G597 LANAT Y51 SAMON Y513 KMC DAIGO SWAMP
Aircraft B77L/H-SDE1E2E3FGHIJ2J3J4J5M1RWXY/LB1D1

Departure

Time 2026-05-04 21:28
Airport Leipzig/Halle Airport (EDDP)

Arrival

Time 2026-05-05 09:57
Airport Narita International Airport (RJAA)
Time Latitude Longitude Altitude Speed Heading
2026-05-04 20:38 51.40841 12.24538 485 ft 0 kts 266°
2026-05-04 21:18 51.40842 12.24560 485 ft 2 kts 266°
2026-05-04 21:18 51.40843 12.24584 485 ft 2 kts 266°
2026-05-04 21:18 51.40842 12.24608 485 ft 2 kts 298°
2026-05-04 21:19 51.40832 12.24626 485 ft 2 kts 328°
2026-05-04 21:19 51.40818 12.24634 485 ft 2 kts 356°
2026-05-04 21:19 51.40803 12.24635 485 ft 2 kts 358°
2026-05-04 21:19 51.40789 12.24636 485 ft 2 kts 354°
2026-05-04 21:20 51.40774 12.24638 485 ft 0 kts 355°
2026-05-04 21:22 51.40776 12.24638 485 ft 1 kts 355°
2026-05-04 21:22 51.40804 12.24634 485 ft 6 kts 355°
2026-05-04 21:23 51.40864 12.24627 485 ft 9 kts 355°
2026-05-04 21:23 51.40922 12.24620 485 ft 7 kts 355°
2026-05-04 21:23 51.40968 12.24614 485 ft 6 kts 355°
2026-05-04 21:23 51.41018 12.24608 485 ft 7 kts 355°
2026-05-04 21:24 51.41074 12.24617 485 ft 8 kts 31°
2026-05-04 21:24 51.41099 12.24711 485 ft 10 kts 83°
2026-05-04 21:24 51.41107 12.24851 485 ft 14 kts 86°
2026-05-04 21:24 51.41114 12.25020 485 ft 16 kts 86°
2026-05-04 21:25 51.41123 12.25209 485 ft 16 kts 85°
2026-05-04 21:25 51.41131 12.25374 485 ft 13 kts 85°
2026-05-04 21:25 51.41137 12.25514 485 ft 11 kts 85°
2026-05-04 21:25 51.41158 12.25618 485 ft 8 kts 34°
2026-05-04 21:26 51.41214 12.25627 485 ft 7 kts 356°
2026-05-04 21:26 51.41269 12.25621 485 ft 8 kts 356°
2026-05-04 21:26 51.41327 12.25602 485 ft 9 kts 336°
2026-05-04 21:26 51.41378 12.25539 485 ft 9 kts 308°
2026-05-04 21:27 51.41392 12.25446 485 ft 4 kts 266°
2026-05-04 21:27 51.41392 12.25442 485 ft 0 kts 266°
2026-05-04 21:27 51.41391 12.25392 485 ft 12 kts 266°
2026-05-04 21:27 51.41369 12.24916 485 ft 73 kts 265°
2026-05-04 21:28 51.41318 12.23813 485 ft 125 kts 265°
2026-05-04 21:28 51.41241 12.22183 485 ft 167 kts 266°
2026-05-04 21:28 51.41157 12.20222 748 ft 179 kts 266°
2026-05-04 21:28 51.41064 12.18210 1256 ft 185 kts 266°
2026-05-04 21:29 51.40960 12.16134 1891 ft 190 kts 267°
2026-05-04 21:29 51.40864 12.14055 2393 ft 190 kts 267°
2026-05-04 21:29 51.40714 12.11945 2715 ft 191 kts 258°
2026-05-04 21:29 51.40234 12.09927 3007 ft 196 kts 240°
2026-05-04 21:30 51.39394 12.08225 3357 ft 198 kts 223°
2026-05-04 21:30 51.38248 12.06980 3611 ft 205 kts 205°
2026-05-04 21:30 51.36836 12.06314 3670 ft 223 kts 186°
2026-05-04 21:30 51.35246 12.06458 3742 ft 240 kts 165°
2026-05-04 21:31 51.31981 12.08804 4176 ft 268 kts 158°
2026-05-04 21:31 51.30243 12.09885 4681 ft 271 kts 160°
2026-05-04 21:31 51.28480 12.10905 5259 ft 271 kts 161°
2026-05-04 21:32 51.26716 12.11909 5788 ft 272 kts 161°
2026-05-04 21:32 51.24916 12.12931 6384 ft 273 kts 161°
2026-05-04 21:32 51.23142 12.13937 6907 ft 274 kts 161°
2026-05-04 21:32 51.21352 12.14953 7433 ft 276 kts 162°
2026-05-04 21:33 51.19533 12.15984 7918 ft 277 kts 162°
2026-05-04 21:33 51.17722 12.17009 8394 ft 278 kts 162°
2026-05-04 21:33 51.15894 12.18043 8834 ft 280 kts 162°
2026-05-04 21:33 51.14062 12.19079 9324 ft 281 kts 162°
2026-05-04 21:34 51.12233 12.20112 9767 ft 282 kts 163°
2026-05-04 21:34 51.10381 12.21157 10160 ft 286 kts 163°
2026-05-04 21:34 51.08468 12.22264 10252 ft 302 kts 159°
2026-05-04 21:34 51.06566 12.23849 10303 ft 321 kts 149°
2026-05-04 21:35 51.04754 12.26125 10379 ft 339 kts 138°
2026-05-04 21:35 51.03205 12.29013 10471 ft 357 kts 126°
2026-05-04 21:35 51.01988 12.32564 10587 ft 375 kts 113°
2026-05-04 21:35 51.01277 12.36594 10928 ft 384 kts 100°
2026-05-04 21:36 51.01146 12.40854 11455 ft 389 kts 89°
2026-05-04 21:36 51.01251 12.45100 12101 ft 389 kts 89°
2026-05-04 21:36 51.01341 12.49346 12735 ft 391 kts 89°
2026-05-04 21:36 51.01411 12.53696 13294 ft 396 kts 90°
2026-05-04 21:37 51.01463 12.58051 13880 ft 401 kts 90°
2026-05-04 21:37 51.01505 12.62518 14550 ft 404 kts 90°
2026-05-04 21:37 51.01537 12.66956 15174 ft 409 kts 91°
2026-05-04 21:37 51.01564 12.71459 15816 ft 413 kts 91°
2026-05-04 21:38 51.01585 12.76001 16456 ft 416 kts 91°
2026-05-04 21:38 51.01603 12.80604 17065 ft 420 kts 91°
2026-05-04 21:38 51.01617 12.85282 17706 ft 425 kts 91°
2026-05-04 21:38 51.01629 12.89926 18308 ft 428 kts 91°
2026-05-04 21:39 51.01638 12.94668 18960 ft 431 kts 91°
2026-05-04 21:39 51.01645 12.99444 19573 ft 435 kts 91°
2026-05-04 21:39 51.01650 13.04260 20151 ft 439 kts 91°
2026-05-04 21:39 51.01653 13.09102 20685 ft 444 kts 91°
2026-05-04 21:40 51.01653 13.13969 21175 ft 449 kts 91°
2026-05-04 21:40 51.01651 13.18982 21656 ft 455 kts 91°
2026-05-04 21:40 51.01646 13.23973 22164 ft 459 kts 91°
2026-05-04 21:40 51.01640 13.29069 22685 ft 462 kts 91°
2026-05-04 21:41 51.01631 13.34103 23220 ft 465 kts 91°
2026-05-04 21:41 51.01620 13.39252 23718 ft 469 kts 91°
2026-05-04 21:41 51.01608 13.44425 24258 ft 470 kts 91°
2026-05-04 21:41 51.01591 13.49631 24730 ft 474 kts 91°
2026-05-04 21:42 51.01368 13.54844 25126 ft 476 kts 100°
2026-05-04 21:42 51.00628 13.59929 25545 ft 478 kts 109°
2026-05-04 21:42 50.99388 13.64786 25978 ft 478 kts 119°
2026-05-04 21:42 50.97739 13.69338 26478 ft 479 kts 124°
2026-05-04 21:43 50.95977 13.73824 26931 ft 481 kts 124°
2026-05-04 21:43 50.94212 13.78280 27372 ft 484 kts 124°
2026-05-04 21:43 50.92303 13.82725 27826 ft 486 kts 129°
2026-05-04 21:43 50.90250 13.86959 28264 ft 489 kts 130°
2026-05-04 21:44 50.88168 13.91198 28740 ft 491 kts 130°
2026-05-04 21:44 50.86074 13.95451 29247 ft 492 kts 130°
2026-05-04 21:44 50.83935 13.99628 29746 ft 492 kts 135°
2026-05-04 21:44 50.81499 14.03415 30262 ft 491 kts 140°
2026-05-04 21:45 50.78974 14.07079 30861 ft 489 kts 140°
2026-05-04 21:45 50.73946 14.14325 30937 ft 488 kts 140°
2026-05-04 21:46 50.68934 14.21532 30939 ft 486 kts 140°
2026-05-04 21:46 50.63945 14.28687 30939 ft 486 kts 140°
2026-05-04 21:47 50.58979 14.35790 30945 ft 486 kts 140°
2026-05-04 21:47 50.53954 14.42957 30941 ft 486 kts 140°
2026-05-04 21:48 50.48947 14.50092 30945 ft 488 kts 138°
2026-05-04 21:48 50.44799 14.58511 30955 ft 494 kts 120°
2026-05-04 21:49 50.41792 14.68195 30948 ft 495 kts 117°
2026-05-04 21:49 50.38863 14.77862 30956 ft 496 kts 117°
2026-05-04 21:50 50.35899 14.87588 30952 ft 494 kts 117°
2026-05-04 21:50 50.32946 14.97222 30955 ft 494 kts 117°
2026-05-04 21:51 50.29971 15.06885 30951 ft 494 kts 117°
2026-05-04 21:51 50.26993 15.16517 30937 ft 495 kts 117°
2026-05-04 21:52 50.23995 15.26173 30947 ft 496 kts 117°
2026-05-04 21:52 50.20977 15.35854 30943 ft 494 kts 117°
2026-05-04 21:53 50.17965 15.45480 30939 ft 496 kts 117°
2026-05-04 21:53 50.14953 15.55066 30951 ft 494 kts 117°
2026-05-04 21:54 50.11930 15.64650 30964 ft 494 kts 117°
2026-05-04 21:54 50.08888 15.74260 30954 ft 493 kts 118°
2026-05-04 21:55 50.05856 15.83798 30948 ft 493 kts 117°
2026-05-04 21:55 50.02810 15.93342 30947 ft 493 kts 117°
2026-05-04 21:56 49.99721 16.02791 30944 ft 495 kts 119°
2026-05-04 21:56 49.96531 16.12207 30945 ft 495 kts 119°
2026-05-04 21:57 49.93332 16.21632 30943 ft 493 kts 118°
2026-05-04 21:57 49.90144 16.30997 30953 ft 493 kts 119°
2026-05-04 21:58 49.86940 16.40380 30963 ft 494 kts 118°
2026-05-04 21:58 49.83713 16.49801 30956 ft 494 kts 118°
2026-05-04 21:59 49.80507 16.59127 30973 ft 493 kts 118°
2026-05-04 21:59 49.77289 16.68455 30962 ft 492 kts 119°
2026-05-04 22:00 49.74065 16.77770 30991 ft 494 kts 119°
2026-05-04 22:00 49.70833 16.87070 30946 ft 493 kts 119°
2026-05-04 22:01 49.67590 16.96371 30955 ft 494 kts 119°
2026-05-04 22:01 49.64346 17.05638 30971 ft 494 kts 119°
2026-05-04 22:02 49.61069 17.14965 30963 ft 494 kts 118°
2026-05-04 22:02 49.57795 17.24255 30968 ft 494 kts 118°
2026-05-04 22:03 49.54523 17.33502 30975 ft 492 kts 118°
2026-05-04 22:03 49.51258 17.42696 30967 ft 492 kts 118°
2026-05-04 22:04 49.47970 17.51923 30965 ft 493 kts 118°
2026-05-04 22:04 49.44677 17.61132 30977 ft 492 kts 118°
2026-05-04 22:05 49.41369 17.70348 30976 ft 493 kts 119°
2026-05-04 22:05 49.38047 17.79572 30983 ft 493 kts 119°
2026-05-04 22:06 49.34744 17.88708 30974 ft 494 kts 119°
2026-05-04 22:06 49.31424 17.97863 30993 ft 491 kts 119°
2026-05-04 22:07 49.28090 18.07020 30993 ft 491 kts 119°
2026-05-04 22:07 49.24774 18.16098 31016 ft 491 kts 118°
2026-05-04 22:08 49.21276 18.25004 31033 ft 492 kts 121°
2026-05-04 22:08 49.17665 18.33908 31016 ft 492 kts 121°
2026-05-04 22:09 49.14093 18.42716 31039 ft 491 kts 121°
2026-05-04 22:09 49.10486 18.51595 31052 ft 492 kts 121°
2026-05-04 22:10 49.06890 18.60429 31044 ft 492 kts 121°
2026-05-04 22:10 49.03286 18.69258 31067 ft 494 kts 121°
2026-05-04 22:11 48.99680 18.78066 31088 ft 493 kts 121°
2026-05-04 22:11 48.96064 18.86867 31093 ft 494 kts 121°
2026-05-04 22:12 48.92437 18.95670 31056 ft 492 kts 121°
2026-05-04 22:12 48.88811 19.04442 31075 ft 491 kts 121°
2026-05-04 22:13 48.85175 19.13209 31083 ft 492 kts 121°
2026-05-04 22:13 48.81539 19.21946 31059 ft 491 kts 121°
2026-05-04 22:14 48.77890 19.30688 31065 ft 492 kts 121°
2026-05-04 22:14 48.74252 19.39373 31066 ft 492 kts 121°
2026-05-04 22:15 48.70581 19.48110 31066 ft 491 kts 121°
2026-05-04 22:15 48.66923 19.56787 31067 ft 491 kts 121°
2026-05-04 22:16 48.63263 19.65443 31066 ft 490 kts 122°
2026-05-04 22:16 48.59576 19.74131 31078 ft 491 kts 122°
2026-05-04 22:17 48.55907 19.82750 31074 ft 491 kts 122°
2026-05-04 22:17 48.52219 19.91387 31076 ft 492 kts 122°
2026-05-04 22:18 48.48538 19.99980 31078 ft 491 kts 122°
2026-05-04 22:18 48.44830 20.08609 31070 ft 491 kts 122°
2026-05-04 22:19 48.41113 20.17230 31068 ft 491 kts 121°
2026-05-04 22:19 48.37418 20.25773 31062 ft 490 kts 121°
2026-05-04 22:20 48.33693 20.34358 31064 ft 491 kts 121°
2026-05-04 22:20 48.30029 20.42928 31067 ft 490 kts 120°
2026-05-04 22:21 48.26429 20.51520 31066 ft 491 kts 120°
2026-05-04 22:21 48.22778 20.60193 31063 ft 490 kts 120°
2026-05-04 22:22 48.19125 20.68835 31057 ft 491 kts 121°
2026-05-04 22:22 48.15478 20.77432 31052 ft 491 kts 121°
2026-05-04 22:23 48.11825 20.86013 31051 ft 491 kts 121°
2026-05-04 22:23 48.08172 20.94565 31053 ft 491 kts 121°
2026-05-04 22:24 48.04481 21.03180 31055 ft 491 kts 121°
2026-05-04 22:24 48.00813 21.11712 31055 ft 491 kts 121°
2026-05-04 22:25 47.97133 21.20247 31056 ft 492 kts 121°
2026-05-04 22:25 47.93428 21.28810 31054 ft 493 kts 121°
2026-05-04 22:26 47.89716 21.37364 31060 ft 492 kts 120°
2026-05-04 22:26 47.86015 21.45866 31049 ft 491 kts 121°
2026-05-04 22:27 47.82304 21.54362 31055 ft 491 kts 120°
2026-05-04 22:27 47.78590 21.62843 31056 ft 492 kts 120°
2026-05-04 22:28 47.74852 21.71350 31054 ft 491 kts 121°
2026-05-04 22:28 47.71118 21.79820 31050 ft 492 kts 121°
2026-05-04 22:29 47.67394 21.88243 31055 ft 491 kts 121°
2026-05-04 22:29 47.63633 21.96723 31050 ft 490 kts 121°
2026-05-04 22:30 47.59898 22.05119 31051 ft 492 kts 121°
2026-05-04 22:30 47.56120 22.13504 31053 ft 491 kts 122°
2026-05-04 22:31 47.52137 22.21694 31053 ft 493 kts 123°
2026-05-04 22:31 47.48143 22.29876 31055 ft 492 kts 123°
2026-05-04 22:32 47.44132 22.38089 31055 ft 491 kts 123°
2026-05-04 22:32 47.40144 22.46213 31061 ft 492 kts 123°
2026-05-04 22:33 47.36060 22.54455 31061 ft 491 kts 123°
2026-05-04 22:33 47.32064 22.62499 31066 ft 491 kts 123°
2026-05-04 22:34 47.28046 22.70569 31070 ft 490 kts 123°
2026-05-04 22:34 47.24008 22.78657 31068 ft 490 kts 123°
2026-05-04 22:35 47.19964 22.86734 31079 ft 489 kts 123°
2026-05-04 22:35 47.15947 22.94733 31085 ft 489 kts 123°
2026-05-04 22:36 47.11921 23.02729 31097 ft 489 kts 123°
2026-05-04 22:36 47.07883 23.10726 31083 ft 490 kts 123°
2026-05-04 22:37 47.03823 23.18742 31076 ft 488 kts 123°
2026-05-04 22:37 46.99790 23.26682 31079 ft 488 kts 123°
2026-05-04 22:38 46.95735 23.34643 31101 ft 488 kts 123°
2026-05-04 22:38 46.91672 23.42596 31095 ft 488 kts 123°
2026-05-04 22:39 46.87621 23.50503 31089 ft 489 kts 123°
2026-05-04 22:39 46.83570 23.58389 31105 ft 488 kts 123°
2026-05-04 22:40 46.79490 23.66306 31103 ft 488 kts 124°
2026-05-04 22:40 46.75414 23.74196 31112 ft 489 kts 124°
2026-05-04 22:41 46.71321 23.82095 31115 ft 490 kts 124°
2026-05-04 22:41 46.67226 23.89974 31105 ft 488 kts 124°
2026-05-04 22:42 46.63133 23.97829 31097 ft 489 kts 124°
2026-05-04 22:42 46.59050 24.05642 31084 ft 488 kts 124°
2026-05-04 22:43 46.54933 24.13498 31078 ft 488 kts 124°
2026-05-04 22:43 46.50801 24.21360 31082 ft 491 kts 124°
2026-05-04 22:44 46.46703 24.29135 31083 ft 489 kts 124°
2026-05-04 22:44 46.42574 24.36948 31082 ft 490 kts 124°
2026-05-04 22:45 46.38439 24.44750 31082 ft 490 kts 124°
2026-05-04 22:45 46.32214 24.56454 31083 ft 491 kts 124°
2026-05-04 22:46 46.28040 24.64276 31083 ft 490 kts 124°
2026-05-04 22:46 46.23880 24.72047 31093 ft 492 kts 125°
2026-05-04 22:47 46.19699 24.79839 31092 ft 492 kts 125°
2026-05-04 22:47 46.15518 24.87607 31095 ft 492 kts 125°
2026-05-04 22:48 46.11327 24.95371 31099 ft 491 kts 126°
2026-05-04 22:48 46.07121 25.03143 31097 ft 492 kts 125°
2026-05-04 22:49 46.02944 25.10840 31096 ft 491 kts 126°
2026-05-04 22:49 45.98758 25.18532 31098 ft 490 kts 126°
2026-05-04 22:50 45.94551 25.26242 31097 ft 490 kts 125°
2026-05-04 22:50 45.90358 25.33905 31093 ft 492 kts 126°
2026-05-04 22:51 45.86119 25.41632 31088 ft 492 kts 126°
2026-05-04 22:51 45.81889 25.49319 31080 ft 491 kts 126°
2026-05-04 22:52 45.77671 25.56964 31081 ft 490 kts 126°
2026-05-04 22:52 45.73454 25.64588 31082 ft 492 kts 126°
2026-05-04 22:53 45.69197 25.72262 31080 ft 492 kts 126°
2026-05-04 22:53 45.64970 25.79861 31083 ft 492 kts 127°
2026-05-04 22:54 45.60704 25.87511 31098 ft 492 kts 126°
2026-05-04 22:54 45.56435 25.95143 31109 ft 489 kts 127°
2026-05-04 22:55 45.52188 26.02718 31108 ft 494 kts 127°
2026-05-04 22:55 45.47921 26.10305 31104 ft 490 kts 127°
2026-05-04 22:56 45.43666 26.17855 31092 ft 494 kts 127°
2026-05-04 22:56 45.39376 26.25443 31072 ft 494 kts 127°
2026-05-04 22:57 45.35058 26.33060 31069 ft 494 kts 127°
2026-05-04 22:57 45.30765 26.40613 31065 ft 493 kts 127°
2026-05-04 22:58 45.26433 26.48216 31053 ft 495 kts 127°
2026-05-04 22:58 45.22111 26.55780 31056 ft 495 kts 127°
2026-05-04 22:59 45.17790 26.63322 31042 ft 496 kts 127°
2026-05-04 22:59 45.13450 26.70877 31036 ft 495 kts 128°
2026-05-04 23:00 45.09089 26.78448 31038 ft 496 kts 128°
2026-05-04 23:00 45.04729 26.85997 31037 ft 497 kts 128°
2026-05-04 23:01 45.00338 26.93580 31046 ft 498 kts 128°
2026-05-04 23:01 44.95956 27.01126 31054 ft 498 kts 128°
2026-05-04 23:02 44.91576 27.08649 31060 ft 496 kts 128°
2026-05-04 23:02 44.87200 27.16147 31064 ft 497 kts 128°
2026-05-04 23:03 44.82821 27.23628 31064 ft 496 kts 128°
2026-05-04 23:03 44.78416 27.31136 31062 ft 499 kts 128°
2026-05-04 23:04 44.74025 27.38599 31066 ft 500 kts 129°
2026-05-04 23:04 44.69577 27.46139 31058 ft 501 kts 129°
2026-05-04 23:05 44.65142 27.53637 31073 ft 502 kts 129°
2026-05-04 23:05 44.60701 27.61124 31069 ft 501 kts 129°
2026-05-04 23:06 44.56226 27.68650 31065 ft 501 kts 130°
2026-05-04 23:06 44.51768 27.76129 31065 ft 503 kts 130°
2026-05-04 23:07 44.47303 27.83599 31075 ft 501 kts 129°
2026-05-04 23:07 44.42816 27.91086 31074 ft 503 kts 130°
2026-05-04 23:08 44.38321 27.98566 31063 ft 503 kts 129°
2026-05-04 23:08 44.33825 28.06029 31073 ft 503 kts 130°
2026-05-04 23:09 44.29333 28.13464 31057 ft 502 kts 129°
2026-05-04 23:09 44.24830 28.20900 31064 ft 504 kts 129°
2026-05-04 23:10 44.20301 28.28359 31062 ft 503 kts 129°
2026-05-04 23:10 44.15802 28.35749 31060 ft 503 kts 129°
2026-05-04 23:11 44.11277 28.43163 31058 ft 502 kts 129°
2026-05-04 23:11 44.06759 28.50547 31060 ft 504 kts 129°
2026-05-04 23:12 44.02221 28.57942 31064 ft 502 kts 129°
2026-05-04 23:12 43.97680 28.65326 31065 ft 504 kts 129°
2026-05-04 23:13 43.93080 28.72784 31059 ft 504 kts 129°
2026-05-04 23:13 43.88530 28.80143 31054 ft 503 kts 129°
2026-05-04 23:14 43.83949 28.87533 31041 ft 504 kts 128°
2026-05-04 23:14 43.79418 28.94824 31046 ft 504 kts 128°
2026-05-04 23:15 43.74840 29.02172 31044 ft 502 kts 128°
2026-05-04 23:15 43.70295 29.09447 31034 ft 503 kts 128°
2026-05-04 23:16 43.65721 29.16753 31033 ft 502 kts 128°
2026-05-04 23:16 43.61183 29.23979 31029 ft 502 kts 128°
2026-05-04 23:17 43.56610 29.31246 31032 ft 502 kts 128°
2026-05-04 23:17 43.52038 29.38491 31022 ft 501 kts 127°
2026-05-04 23:18 43.47474 29.45707 31019 ft 501 kts 127°
2026-05-04 23:18 43.42893 29.52931 31018 ft 502 kts 127°
2026-05-04 23:19 43.38335 29.60098 31007 ft 498 kts 127°
2026-05-04 23:19 43.33762 29.67274 31014 ft 500 kts 128°
2026-05-04 23:20 43.29172 29.74459 31010 ft 500 kts 128°
2026-05-04 23:20 43.24620 29.81566 31009 ft 501 kts 127°
2026-05-04 23:21 43.20045 29.88690 31018 ft 498 kts 128°
2026-05-04 23:21 43.15451 29.95828 31011 ft 496 kts 127°
2026-05-04 23:22 43.10880 30.02911 30997 ft 497 kts 127°
2026-05-04 23:22 43.06318 30.09963 30999 ft 495 kts 126°
2026-05-04 23:23 43.01783 30.16959 31004 ft 496 kts 126°
2026-05-04 23:23 42.97214 30.23989 30988 ft 497 kts 126°
2026-05-04 23:24 42.92656 30.30982 30994 ft 493 kts 126°
2026-05-04 23:24 42.88057 30.38025 30977 ft 495 kts 126°
2026-05-04 23:25 42.83481 30.45014 30972 ft 495 kts 126°
2026-05-04 23:25 42.78896 30.52001 30985 ft 495 kts 126°
2026-05-04 23:26 42.74768 30.59360 30965 ft 485 kts 112°
2026-05-04 23:26 42.72446 30.67703 30983 ft 470 kts 95°
2026-05-04 23:27 42.71720 30.76410 30960 ft 460 kts 89°
2026-05-04 23:27 42.71067 30.85064 30974 ft 466 kts 90°
2026-05-04 23:28 42.70293 30.93736 30954 ft 462 kts 91°
2026-05-04 23:28 42.69456 31.02413 30952 ft 462 kts 91°
2026-05-04 23:29 42.68586 31.11063 30949 ft 464 kts 92°
2026-05-04 23:29 42.67695 31.19696 30949 ft 461 kts 91°
2026-05-04 23:30 42.66793 31.28287 30945 ft 461 kts 91°
2026-05-04 23:30 42.65881 31.36873 30946 ft 457 kts 91°
2026-05-04 23:31 42.64969 31.45384 30941 ft 456 kts 91°
2026-05-04 23:31 42.64051 31.53888 30938 ft 458 kts 91°
2026-05-04 23:32 42.63128 31.62366 30945 ft 459 kts 91°
2026-05-04 23:32 42.62188 31.70925 30951 ft 456 kts 92°
2026-05-04 23:33 42.61250 31.79407 30946 ft 454 kts 92°
2026-05-04 23:33 42.60319 31.87772 30948 ft 452 kts 92°
2026-05-04 23:34 42.59375 31.96209 30949 ft 455 kts 92°
2026-05-04 23:34 42.58473 32.04684 30945 ft 447 kts 88°
2026-05-04 23:35 42.58069 32.13044 30936 ft 447 kts 88°
2026-05-04 23:35 42.57654 32.21408 30950 ft 445 kts 88°
2026-05-04 23:36 42.57218 32.29707 30942 ft 445 kts 88°
2026-05-04 23:36 42.56762 32.38090 30936 ft 448 kts 88°
2026-05-04 23:37 42.56298 32.46398 30944 ft 444 kts 88°
2026-05-04 23:37 42.55822 32.54771 30940 ft 445 kts 88°
2026-05-04 23:38 42.55341 32.63106 30948 ft 445 kts 88°
2026-05-04 23:38 42.54857 32.71382 30945 ft 445 kts 89°
2026-05-04 23:39 42.54364 32.79691 30954 ft 439 kts 89°
2026-05-04 23:39 42.53868 32.87989 30946 ft 447 kts 89°
2026-05-04 23:40 42.53360 32.96326 30953 ft 441 kts 89°
2026-05-04 23:40 42.52855 33.04530 30946 ft 442 kts 89°
2026-05-04 23:41 42.52339 33.12828 30943 ft 443 kts 89°
2026-05-04 23:41 42.51818 33.21092 30974 ft 440 kts 89°
2026-05-04 23:42 42.51294 33.29298 30918 ft 435 kts 89°
2026-05-04 23:42 42.50767 33.37517 30956 ft 443 kts 89°
2026-05-04 23:43 42.50228 33.45769 30927 ft 435 kts 89°
2026-05-04 23:43 42.49692 33.53923 30962 ft 438 kts 89°
2026-05-04 23:44 42.49145 33.62125 30932 ft 438 kts 89°
2026-05-04 23:44 42.48593 33.70320 30952 ft 436 kts 90°
2026-05-04 23:45 42.48038 33.78477 30942 ft 437 kts 90°
2026-05-04 23:45 42.47478 33.86620 30960 ft 434 kts 90°
2026-05-04 23:46 42.46913 33.94767 30967 ft 435 kts 91°
2026-05-04 23:46 42.46344 34.02864 30988 ft 434 kts 91°
2026-05-04 23:47 42.45766 34.11019 30934 ft 435 kts 91°
2026-05-04 23:47 42.45187 34.19105 30944 ft 435 kts 91°
2026-05-04 23:48 42.44594 34.27296 30964 ft 438 kts 91°
2026-05-04 23:48 42.44001 34.35399 30985 ft 436 kts 91°
2026-05-04 23:49 42.43395 34.43617 30960 ft 438 kts 91°
2026-05-04 23:49 42.42789 34.51756 30966 ft 439 kts 91°
2026-05-04 23:50 42.42173 34.59929 30954 ft 435 kts 91°
2026-05-04 23:50 42.41553 34.68104 30905 ft 442 kts 92°
2026-05-04 23:51 42.41238 34.72234 31020 ft 447 kts 92°
2026-05-04 23:51 42.40916 34.76407 30926 ft 442 kts 92°
2026-05-04 23:51 42.40279 34.84629 30960 ft 446 kts 92°
2026-05-04 23:52 42.39630 34.92921 30926 ft 440 kts 92°
2026-05-04 23:52 42.38980 35.01165 30932 ft 445 kts 92°
2026-05-04 23:53 42.38320 35.09450 30937 ft 444 kts 92°
2026-05-04 23:53 42.37649 35.17801 30957 ft 451 kts 93°
2026-05-04 23:54 42.36970 35.26158 30921 ft 443 kts 93°
2026-05-04 23:54 42.36288 35.34502 30968 ft 453 kts 93°
2026-05-04 23:55 42.35594 35.42882 30985 ft 443 kts 92°
2026-05-04 23:56 42.34557 35.55321 30932 ft 452 kts 93°
2026-05-04 23:56 42.33845 35.63734 30888 ft 448 kts 93°
2026-05-04 23:57 42.33128 35.72150 30961 ft 456 kts 94°
2026-05-04 23:57 42.32403 35.80568 30891 ft 447 kts 94°
2026-05-04 23:58 42.31672 35.89012 30939 ft 457 kts 94°
2026-05-04 23:58 42.30935 35.97434 30926 ft 458 kts 95°
2026-05-04 23:59 42.30177 36.06022 30935 ft 459 kts 95°
2026-05-04 23:59 42.29417 36.14555 30914 ft 458 kts 95°
2026-05-05 00:00 42.28654 36.23048 30928 ft 456 kts 95°
2026-05-05 00:00 42.27892 36.31472 30930 ft 456 kts 95°
2026-05-05 00:01 42.27114 36.40001 30937 ft 458 kts 95°
2026-05-05 00:01 42.26335 36.48456 30929 ft 455 kts 96°
2026-05-05 00:02 42.25553 36.56891 30924 ft 458 kts 96°
2026-05-05 00:02 42.24757 36.65399 30912 ft 455 kts 96°
2026-05-05 00:03 42.23961 36.73830 30941 ft 459 kts 97°
2026-05-05 00:03 42.23145 36.82420 30946 ft 459 kts 97°
2026-05-05 00:04 42.22328 36.90938 30931 ft 460 kts 97°
2026-05-05 00:04 42.21507 36.99434 30922 ft 460 kts 97°
2026-05-05 00:05 42.20676 37.07973 30950 ft 460 kts 97°
2026-05-05 00:05 42.19838 37.16504 30914 ft 459 kts 97°
2026-05-05 00:06 42.18997 37.25007 30902 ft 461 kts 97°
2026-05-05 00:06 42.18154 37.33464 30952 ft 459 kts 98°
2026-05-05 00:07 42.17298 37.41991 30967 ft 458 kts 98°
2026-05-05 00:07 42.16435 37.50515 30912 ft 458 kts 98°
2026-05-05 00:08 42.15568 37.59014 30922 ft 465 kts 98°
2026-05-05 00:08 42.14693 37.67529 30942 ft 457 kts 98°
2026-05-05 00:09 42.13814 37.76023 30954 ft 460 kts 99°
2026-05-05 00:09 42.12929 37.84508 30941 ft 455 kts 99°
2026-05-05 00:10 42.12039 37.92987 30945 ft 461 kts 99°
2026-05-05 00:10 42.11141 38.01470 30870 ft 458 kts 99°
2026-05-05 00:11 42.10240 38.09922 30914 ft 459 kts 99°
2026-05-05 00:11 42.09331 38.18391 30928 ft 458 kts 99°
2026-05-05 00:12 42.08409 38.26921 30935 ft 460 kts 99°
2026-05-05 00:12 42.07491 38.35358 30887 ft 457 kts 99°
2026-05-05 00:13 42.06556 38.43876 30923 ft 464 kts 99°
2026-05-05 00:13 42.05609 38.52451 30898 ft 464 kts 99°
2026-05-05 00:14 42.04663 38.60968 30919 ft 463 kts 99°
2026-05-05 00:14 42.03706 38.69516 30909 ft 463 kts 100°
2026-05-05 00:15 42.02744 38.78040 30882 ft 463 kts 100°
2026-05-05 00:15 42.01775 38.86583 30933 ft 465 kts 101°
2026-05-05 00:16 42.00795 38.95153 30856 ft 466 kts 100°
2026-05-05 00:16 41.99810 39.03709 30920 ft 468 kts 101°
2026-05-05 00:17 41.98815 39.12300 30909 ft 463 kts 100°
2026-05-05 00:17 41.97811 39.20910 30914 ft 468 kts 100°
2026-05-05 00:18 41.96800 39.29525 30920 ft 468 kts 100°
2026-05-05 00:18 41.95790 39.38068 30863 ft 466 kts 101°
2026-05-05 00:19 41.94765 39.46678 30904 ft 471 kts 101°
2026-05-05 00:19 41.93727 39.55339 30922 ft 472 kts 101°
2026-05-05 00:20 41.92686 39.63982 30916 ft 468 kts 101°
2026-05-05 00:20 41.91645 39.72562 30903 ft 469 kts 101°
2026-05-05 00:21 41.90590 39.81199 30878 ft 471 kts 101°
2026-05-05 00:21 41.89527 39.89846 30912 ft 471 kts 101°
2026-05-05 00:22 41.88452 39.98533 30934 ft 473 kts 101°
2026-05-05 00:22 41.87363 40.07279 30942 ft 473 kts 101°
2026-05-05 00:23 41.86275 40.15959 30911 ft 470 kts 101°
2026-05-05 00:23 41.85179 40.24654 30898 ft 473 kts 101°
2026-05-05 00:24 41.84079 40.33320 30904 ft 473 kts 101°
2026-05-05 00:24 41.82977 40.41948 30933 ft 472 kts 101°
2026-05-05 00:25 41.81863 40.50623 30905 ft 472 kts 101°
2026-05-05 00:25 41.80744 40.59272 30920 ft 472 kts 101°
2026-05-05 00:26 41.80308 40.68007 30932 ft 482 kts 87°
2026-05-05 00:26 41.80867 40.72487 31231 ft 487 kts 77°
2026-05-05 00:26 41.81834 40.76789 31718 ft 482 kts 75°
2026-05-05 00:26 41.82829 40.81017 32141 ft 479 kts 75°
2026-05-05 00:27 41.83810 40.85309 32445 ft 480 kts 76°
2026-05-05 00:27 41.84763 40.89581 32639 ft 485 kts 76°
2026-05-05 00:27 41.85706 40.93896 32851 ft 488 kts 76°
2026-05-05 00:28 41.87578 41.02654 32902 ft 485 kts 76°
2026-05-05 00:28 41.89397 41.11315 32916 ft 487 kts 77°
2026-05-05 00:29 41.91199 41.20005 32904 ft 485 kts 77°
2026-05-05 00:29 41.92995 41.28733 32923 ft 483 kts 77°
2026-05-05 00:30 41.94772 41.37434 32928 ft 488 kts 77°
2026-05-05 00:30 41.96537 41.46111 32898 ft 480 kts 77°
2026-05-05 00:31 41.98298 41.54823 32898 ft 484 kts 77°
2026-05-05 00:31 42.00046 41.63507 32909 ft 486 kts 77°
2026-05-05 00:32 42.01802 41.72264 32865 ft 485 kts 78°
2026-05-05 00:32 42.03553 41.81042 32904 ft 487 kts 78°
2026-05-05 00:33 42.05278 41.89726 32915 ft 486 kts 78°
2026-05-05 00:33 42.07019 41.98531 32903 ft 485 kts 78°
2026-05-05 00:34 42.08723 42.07181 32897 ft 484 kts 78°
2026-05-05 00:34 42.10447 42.15974 32903 ft 482 kts 78°
2026-05-05 00:35 42.12135 42.24618 32864 ft 480 kts 78°
2026-05-05 00:35 42.13829 42.33343 32888 ft 488 kts 78°
2026-05-05 00:36 42.15537 42.42168 32880 ft 484 kts 78°
2026-05-05 00:36 42.17224 42.50932 32862 ft 485 kts 78°
2026-05-05 00:37 42.18903 42.59689 32892 ft 485 kts 78°
2026-05-05 00:37 42.20575 42.68447 32858 ft 480 kts 79°
2026-05-05 00:38 42.22244 42.77233 32892 ft 484 kts 79°
2026-05-05 00:38 42.23893 42.85947 32899 ft 483 kts 79°
2026-05-05 00:39 42.25551 42.94761 32892 ft 487 kts 79°
2026-05-05 00:39 42.26570 43.03685 32915 ft 475 kts 94°
2026-05-05 00:40 42.25611 43.12387 32914 ft 474 kts 110°
2026-05-05 00:40 42.23249 43.20573 32878 ft 465 kts 115°
2026-05-05 00:41 42.20721 43.28675 32928 ft 472 kts 116°
2026-05-05 00:41 42.18161 43.36718 32929 ft 471 kts 116°
2026-05-05 00:42 42.15557 43.44801 32924 ft 472 kts 116°
2026-05-05 00:42 42.12933 43.52887 32891 ft 474 kts 116°
2026-05-05 00:43 42.10279 43.61019 32879 ft 471 kts 116°
2026-05-05 00:43 42.07156 43.68658 32924 ft 468 kts 127°
2026-05-05 00:44 42.03560 43.75874 32872 ft 467 kts 127°
2026-05-05 00:44 41.99899 43.83184 32897 ft 470 kts 127°
2026-05-05 00:45 41.96317 43.90322 32899 ft 469 kts 127°
2026-05-05 00:45 41.92678 43.97557 32888 ft 468 kts 127°
2026-05-05 00:46 41.89049 44.04755 32898 ft 467 kts 127°
2026-05-05 00:46 41.85397 44.11980 32910 ft 469 kts 127°
2026-05-05 00:47 41.81753 44.19172 32923 ft 469 kts 128°
2026-05-05 00:47 41.78086 44.26393 32923 ft 471 kts 128°
2026-05-05 00:48 41.74419 44.33598 32920 ft 471 kts 128°
2026-05-05 00:48 41.70737 44.40812 32921 ft 472 kts 128°
2026-05-05 00:49 41.67019 44.48082 32914 ft 471 kts 128°
2026-05-05 00:49 41.63348 44.55246 32907 ft 470 kts 128°
2026-05-05 00:50 41.59619 44.62498 32903 ft 477 kts 128°
2026-05-05 00:50 41.55902 44.69719 32881 ft 466 kts 129°
2026-05-05 00:51 41.52191 44.76902 32880 ft 476 kts 129°
2026-05-05 00:51 41.48483 44.84071 32882 ft 470 kts 129°
2026-05-05 00:52 41.44731 44.91300 32886 ft 475 kts 129°
2026-05-05 00:52 41.41017 44.98446 32884 ft 471 kts 129°
2026-05-05 00:53 41.37265 45.05658 32894 ft 477 kts 128°
2026-05-05 00:53 41.34425 45.13708 32932 ft 488 kts 115°
2026-05-05 00:54 41.32259 45.22247 32924 ft 486 kts 114°
2026-05-05 00:54 41.30085 45.30771 32900 ft 492 kts 115°
2026-05-05 00:55 41.27876 45.39376 32904 ft 493 kts 115°
2026-05-05 00:55 41.25680 45.47887 32875 ft 487 kts 115°
2026-05-05 00:56 41.23474 45.56389 32846 ft 487 kts 115°
2026-05-05 00:56 41.21251 45.64916 32840 ft 493 kts 116°
2026-05-05 00:57 41.18997 45.73512 32869 ft 487 kts 116°
2026-05-05 00:57 41.16764 45.81977 32860 ft 495 kts 117°
2026-05-05 00:58 41.14489 45.90577 32885 ft 492 kts 116°
2026-05-05 00:58 41.12236 45.99070 32893 ft 493 kts 117°
2026-05-05 00:59 41.09963 46.07597 32897 ft 494 kts 117°
2026-05-05 00:59 41.07657 46.16225 32874 ft 496 kts 117°
2026-05-05 01:00 41.05368 46.24760 32876 ft 495 kts 117°
2026-05-05 01:00 41.03061 46.33361 32850 ft 497 kts 117°
2026-05-05 01:01 41.00777 46.41920 32856 ft 494 kts 117°
2026-05-05 01:01 40.98481 46.50481 32887 ft 501 kts 117°
2026-05-05 01:02 40.96165 46.59104 32862 ft 498 kts 118°
2026-05-05 01:02 40.93834 46.67744 32865 ft 496 kts 118°
2026-05-05 01:03 40.91525 46.76272 32863 ft 497 kts 118°
2026-05-05 01:03 40.89183 46.84884 32839 ft 497 kts 119°
2026-05-05 01:04 40.86831 46.93474 32841 ft 497 kts 119°
2026-05-05 01:04 40.83288 47.06353 32849 ft 501 kts 119°
2026-05-05 01:05 40.80929 47.14905 32854 ft 497 kts 119°
2026-05-05 01:05 40.78529 47.23512 32859 ft 499 kts 119°
2026-05-05 01:06 40.76133 47.32070 32870 ft 502 kts 119°
2026-05-05 01:06 40.73720 47.40666 32881 ft 501 kts 119°
2026-05-05 01:07 40.71303 47.49271 32885 ft 501 kts 119°
2026-05-05 01:07 40.68885 47.57862 32903 ft 502 kts 119°
2026-05-05 01:08 40.66456 47.66459 32869 ft 501 kts 120°
2026-05-05 01:08 40.64028 47.75019 32881 ft 502 kts 120°
2026-05-05 01:09 40.61591 47.83593 32875 ft 501 kts 120°
2026-05-05 01:09 40.59166 47.92210 32889 ft 509 kts 116°
2026-05-05 01:10 40.57977 48.01524 32872 ft 529 kts 101°
2026-05-05 01:10 40.57569 48.11115 32880 ft 529 kts 101°
2026-05-05 01:11 40.57150 48.20788 32887 ft 531 kts 101°
2026-05-05 01:11 40.56716 48.30442 32887 ft 530 kts 101°
2026-05-05 01:12 40.56268 48.40062 32883 ft 531 kts 100°
2026-05-05 01:12 40.55808 48.49739 32890 ft 531 kts 101°
2026-05-05 01:13 40.55342 48.59338 32899 ft 530 kts 101°
2026-05-05 01:13 40.54865 48.68957 32877 ft 529 kts 101°
2026-05-05 01:14 40.54378 48.78605 32876 ft 531 kts 101°
2026-05-05 01:14 40.53885 48.88238 32863 ft 530 kts 101°
2026-05-05 01:15 40.53382 48.97864 32876 ft 530 kts 101°
2026-05-05 01:15 40.52871 49.07526 32881 ft 528 kts 101°
2026-05-05 01:16 40.52352 49.17123 32874 ft 531 kts 101°
2026-05-05 01:16 40.51827 49.26729 32881 ft 532 kts 101°
2026-05-05 01:17 40.51290 49.36417 32879 ft 528 kts 101°
2026-05-05 01:17 40.50746 49.46064 32890 ft 532 kts 100°
2026-05-05 01:18 40.50199 49.55662 32884 ft 531 kts 100°
2026-05-05 01:18 40.49641 49.65304 32879 ft 529 kts 101°
2026-05-05 01:19 40.49073 49.74961 32868 ft 531 kts 101°
2026-05-05 01:19 40.48499 49.84598 32858 ft 530 kts 101°
2026-05-05 01:20 40.47912 49.94277 32860 ft 532 kts 101°
2026-05-05 01:20 40.47314 50.03927 32859 ft 531 kts 103°
2026-05-05 01:21 40.46164 50.13362 32868 ft 526 kts 106°
2026-05-05 01:21 40.44899 50.22790 32856 ft 525 kts 107°
2026-05-05 01:22 40.43626 50.32230 32865 ft 526 kts 106°
2026-05-05 01:22 40.42348 50.41649 32869 ft 526 kts 106°
2026-05-05 01:23 40.41063 50.51080 32867 ft 526 kts 106°
2026-05-05 01:23 40.39771 50.60506 32873 ft 526 kts 106°
2026-05-05 01:24 40.38474 50.69907 32860 ft 525 kts 107°
2026-05-05 01:24 40.37167 50.79316 32845 ft 527 kts 107°
2026-05-05 01:25 40.35848 50.88757 32857 ft 528 kts 106°
2026-05-05 01:25 40.34522 50.98195 32852 ft 527 kts 107°
2026-05-05 01:26 40.33194 51.07580 32852 ft 531 kts 106°
2026-05-05 01:26 40.31850 51.17040 32861 ft 526 kts 106°
2026-05-05 01:27 40.30513 51.26381 32849 ft 526 kts 107°
2026-05-05 01:27 40.29158 51.35783 32851 ft 527 kts 106°
2026-05-05 01:28 40.27849 51.45199 32849 ft 531 kts 102°
2026-05-05 01:28 40.27964 51.54903 32855 ft 542 kts 83°
2026-05-05 01:29 40.29619 51.64604 32847 ft 544 kts 78°
2026-05-05 01:29 40.31358 51.74198 32838 ft 545 kts 79°
2026-05-05 01:30 40.33070 51.83789 32834 ft 543 kts 79°
2026-05-05 01:30 40.34773 51.93444 32834 ft 545 kts 79°
2026-05-05 01:31 40.36451 52.03042 32833 ft 543 kts 79°
2026-05-05 01:31 40.38123 52.12672 32833 ft 543 kts 79°
2026-05-05 01:32 40.39780 52.22282 32832 ft 543 kts 79°
2026-05-05 01:32 40.41429 52.31907 32831 ft 543 kts 79°
2026-05-05 01:33 40.43079 52.41587 32837 ft 542 kts 79°
2026-05-05 01:33 40.44708 52.51200 32835 ft 542 kts 79°
2026-05-05 01:34 40.46324 52.60788 32837 ft 541 kts 79°
2026-05-05 01:34 40.47934 52.70391 32808 ft 540 kts 79°
2026-05-05 01:35 40.49533 52.79983 32796 ft 540 kts 79°
2026-05-05 01:35 40.51131 52.89624 32815 ft 539 kts 79°
2026-05-05 01:36 40.52710 52.99198 32808 ft 540 kts 79°
2026-05-05 01:36 40.54288 53.08820 32803 ft 539 kts 79°
2026-05-05 01:37 40.55858 53.18448 32801 ft 539 kts 79°
2026-05-05 01:37 40.57415 53.28046 32816 ft 540 kts 79°
2026-05-05 01:38 40.58960 53.37627 32808 ft 538 kts 79°
2026-05-05 01:38 40.60499 53.47221 32818 ft 537 kts 79°
2026-05-05 01:39 40.62027 53.56805 32817 ft 538 kts 79°
2026-05-05 01:39 40.63554 53.66431 32816 ft 537 kts 80°
2026-05-05 01:40 40.65062 53.75995 32805 ft 537 kts 80°
2026-05-05 01:40 40.66571 53.85627 32804 ft 540 kts 79°
2026-05-05 01:41 40.68070 53.95241 32803 ft 539 kts 79°
2026-05-05 01:41 40.69564 54.04884 32803 ft 536 kts 79°
2026-05-05 01:42 40.71044 54.14488 32807 ft 538 kts 79°
2026-05-05 01:42 40.72517 54.24108 32809 ft 537 kts 79°
2026-05-05 01:43 40.73988 54.33767 32808 ft 536 kts 79°
2026-05-05 01:43 40.75439 54.43350 32810 ft 537 kts 79°
2026-05-05 01:44 40.76893 54.53007 32808 ft 536 kts 79°
2026-05-05 01:44 40.78326 54.62595 32811 ft 536 kts 79°
2026-05-05 01:45 40.79754 54.72198 32802 ft 535 kts 80°
2026-05-05 01:45 40.81183 54.81866 32807 ft 537 kts 79°
2026-05-05 01:46 40.82593 54.91465 32816 ft 536 kts 79°
2026-05-05 01:46 40.83996 55.01072 32823 ft 534 kts 80°
2026-05-05 01:47 40.85394 55.10706 32834 ft 536 kts 79°
2026-05-05 01:47 40.86785 55.20347 32839 ft 535 kts 80°
2026-05-05 01:48 40.88156 55.29911 32854 ft 533 kts 80°
2026-05-05 01:48 40.89525 55.39525 32845 ft 534 kts 80°
2026-05-05 01:49 40.90889 55.49158 32851 ft 533 kts 80°
2026-05-05 01:49 40.92241 55.58770 32852 ft 533 kts 79°
2026-05-05 01:50 40.93579 55.68344 32838 ft 532 kts 80°
2026-05-05 01:50 40.94913 55.77945 32836 ft 532 kts 80°
2026-05-05 01:51 40.96235 55.87528 32826 ft 533 kts 80°
2026-05-05 01:51 40.97555 55.97152 32829 ft 533 kts 80°
2026-05-05 01:52 40.98866 56.06772 32830 ft 533 kts 80°
2026-05-05 01:52 41.00172 56.16423 32845 ft 532 kts 80°
2026-05-05 01:53 41.01459 56.25999 32852 ft 532 kts 80°
2026-05-05 01:53 41.02745 56.35624 32853 ft 533 kts 80°
2026-05-05 01:54 41.04031 56.45312 32867 ft 534 kts 80°
2026-05-05 01:54 41.05297 56.54910 32868 ft 532 kts 80°
2026-05-05 01:55 41.06553 56.64506 32876 ft 532 kts 80°
2026-05-05 01:55 41.07809 56.74161 32881 ft 532 kts 81°
2026-05-05 01:56 41.09053 56.83793 32898 ft 531 kts 81°
2026-05-05 01:56 41.10283 56.93380 32873 ft 532 kts 81°
2026-05-05 01:57 41.11514 57.03044 32857 ft 530 kts 81°
2026-05-05 01:57 41.12726 57.12623 32867 ft 531 kts 81°
2026-05-05 01:58 41.13938 57.22270 32868 ft 531 kts 81°
2026-05-05 01:58 41.15136 57.31868 32863 ft 531 kts 81°
2026-05-05 01:59 41.16331 57.41516 32868 ft 530 kts 80°
2026-05-05 01:59 41.17511 57.51103 32864 ft 529 kts 81°
2026-05-05 02:00 41.18687 57.60730 32867 ft 529 kts 81°
2026-05-05 02:00 41.19852 57.70340 32861 ft 529 kts 81°
2026-05-05 02:01 41.21011 57.79958 32861 ft 530 kts 81°
2026-05-05 02:01 41.22163 57.89596 32870 ft 530 kts 81°
2026-05-05 02:02 41.23306 57.99237 32870 ft 528 kts 81°
2026-05-05 02:02 41.24438 58.08842 32879 ft 529 kts 81°
2026-05-05 02:03 41.25556 58.18409 32890 ft 528 kts 81°
2026-05-05 02:03 41.26671 58.28011 32882 ft 528 kts 81°
2026-05-05 02:04 41.27780 58.37647 32896 ft 529 kts 81°
2026-05-05 02:04 41.28883 58.47297 32905 ft 529 kts 81°
2026-05-05 02:05 41.29974 58.56917 32909 ft 528 kts 81°
2026-05-05 02:05 41.31056 58.66523 32902 ft 527 kts 82°
2026-05-05 02:06 41.32132 58.76165 32896 ft 527 kts 82°
2026-05-05 02:06 41.33199 58.85789 32891 ft 527 kts 82°
2026-05-05 02:07 41.34251 58.95358 32896 ft 527 kts 82°
2026-05-05 02:07 41.35303 59.05001 32897 ft 528 kts 82°
2026-05-05 02:08 41.36342 59.14604 32908 ft 527 kts 82°
2026-05-05 02:08 41.37373 59.24213 32908 ft 526 kts 82°
2026-05-05 02:09 41.38403 59.33886 32914 ft 528 kts 81°
2026-05-05 02:09 41.39420 59.43518 32917 ft 527 kts 82°
2026-05-05 02:10 41.40434 59.53193 32921 ft 529 kts 81°
2026-05-05 02:10 41.41435 59.62830 32923 ft 529 kts 81°
2026-05-05 02:11 41.42431 59.72507 32922 ft 528 kts 82°
2026-05-05 02:11 41.43422 59.82203 32924 ft 529 kts 82°
2026-05-05 02:12 41.44883 59.96667 32923 ft 530 kts 82°
2026-05-05 02:13 41.45853 60.06372 32929 ft 530 kts 82°
2026-05-05 02:13 41.46819 60.16118 32928 ft 529 kts 82°
2026-05-05 02:14 41.48034 60.25691 32941 ft 528 kts 72°
2026-05-05 02:14 41.50386 60.34956 32940 ft 526 kts 69°
2026-05-05 02:15 41.52700 60.44121 32946 ft 527 kts 69°
2026-05-05 02:15 41.54954 60.53374 32951 ft 523 kts 70°
2026-05-05 02:16 41.57154 60.62605 32946 ft 526 kts 70°
2026-05-05 02:16 41.59461 60.71844 32947 ft 522 kts 68°
2026-05-05 02:17 41.61894 60.80930 32944 ft 525 kts 68°
2026-05-05 02:17 41.64320 60.90088 32938 ft 524 kts 68°
2026-05-05 02:18 41.66719 60.99228 32937 ft 521 kts 68°
2026-05-05 02:18 41.69091 61.08321 32934 ft 521 kts 68°
2026-05-05 02:19 41.71481 61.17529 32938 ft 520 kts 68°
2026-05-05 02:19 41.73818 61.26580 32936 ft 520 kts 68°
2026-05-05 02:20 41.76176 61.35743 32935 ft 521 kts 68°
2026-05-05 02:20 41.78508 61.44853 32952 ft 518 kts 68°
2026-05-05 02:21 41.80830 61.53949 32956 ft 518 kts 68°
2026-05-05 02:21 41.83158 61.63108 32950 ft 519 kts 68°
2026-05-05 02:22 41.85469 61.72236 32925 ft 521 kts 68°
2026-05-05 02:22 41.87768 61.81370 32927 ft 517 kts 68°
2026-05-05 02:23 41.90045 61.90463 32937 ft 518 kts 68°
2026-05-05 02:23 41.92313 61.99560 32939 ft 516 kts 68°
2026-05-05 02:24 41.94572 62.08650 32943 ft 515 kts 68°
2026-05-05 02:24 41.96843 62.17803 32946 ft 515 kts 68°
2026-05-05 02:25 41.99083 62.26867 32951 ft 513 kts 68°
2026-05-05 02:25 42.01313 62.35923 32960 ft 512 kts 68°
2026-05-05 02:26 42.03534 62.44980 32963 ft 516 kts 68°
2026-05-05 02:26 42.05756 62.54078 32958 ft 513 kts 68°
2026-05-05 02:27 42.07976 62.63199 32967 ft 511 kts 68°
2026-05-05 02:27 42.10174 62.72268 32960 ft 514 kts 69°
2026-05-05 02:28 42.12384 62.81428 32950 ft 512 kts 69°
2026-05-05 02:28 42.14565 62.90498 32955 ft 509 kts 69°
2026-05-05 02:29 42.16721 62.99495 32956 ft 509 kts 69°
2026-05-05 02:29 42.18895 63.08592 32962 ft 510 kts 69°
2026-05-05 02:30 42.21042 63.17603 32958 ft 509 kts 69°
2026-05-05 02:30 42.23202 63.26706 32968 ft 510 kts 69°
2026-05-05 02:31 42.25335 63.35731 32968 ft 507 kts 69°
2026-05-05 02:31 42.27459 63.44752 32974 ft 507 kts 69°
2026-05-05 02:32 42.29573 63.53773 32987 ft 506 kts 69°
2026-05-05 02:32 42.31690 63.62836 32987 ft 505 kts 70°
2026-05-05 02:33 42.33791 63.71872 32983 ft 504 kts 70°
2026-05-05 02:33 42.35884 63.80910 32985 ft 505 kts 70°
2026-05-05 02:34 42.37964 63.89928 32981 ft 504 kts 70°
2026-05-05 02:34 42.40036 63.98946 32975 ft 501 kts 70°
2026-05-05 02:35 42.42075 64.07948 32986 ft 503 kts 71°
2026-05-05 02:35 42.44094 64.16949 32976 ft 502 kts 71°
2026-05-05 02:36 42.46103 64.25922 32986 ft 501 kts 71°
2026-05-05 02:36 42.48128 64.34914 32980 ft 500 kts 71°
2026-05-05 02:37 42.50161 64.43971 32982 ft 501 kts 71°
2026-05-05 02:37 42.52167 64.52953 32985 ft 499 kts 72°
2026-05-05 02:38 42.54166 64.61940 32987 ft 500 kts 71°
2026-05-05 02:38 42.56158 64.70933 32980 ft 500 kts 72°
2026-05-05 02:39 42.58097 64.79726 32978 ft 499 kts 72°
2026-05-05 02:39 42.60072 64.88719 32976 ft 498 kts 72°
2026-05-05 02:40 42.62039 64.97712 32973 ft 497 kts 72°
2026-05-05 02:40 42.63989 65.06662 32981 ft 497 kts 73°
2026-05-05 02:41 42.65929 65.15609 32964 ft 497 kts 72°
2026-05-05 02:41 42.67877 65.24627 32975 ft 496 kts 72°
2026-05-05 02:42 42.69802 65.33580 32978 ft 496 kts 73°
2026-05-05 02:42 42.71715 65.42515 32978 ft 495 kts 73°
2026-05-05 02:43 42.73639 65.51536 32976 ft 497 kts 73°
2026-05-05 02:43 42.75536 65.60471 32982 ft 495 kts 73°
2026-05-05 02:44 42.77436 65.69459 32984 ft 494 kts 73°
2026-05-05 02:44 42.79311 65.78365 32988 ft 493 kts 73°
2026-05-05 02:45 42.81192 65.87337 32988 ft 493 kts 74°
2026-05-05 02:45 42.83067 65.96326 32992 ft 495 kts 73°
2026-05-05 02:46 42.84922 66.05254 32995 ft 491 kts 74°
2026-05-05 02:46 42.86772 66.14228 33005 ft 493 kts 74°
2026-05-05 02:47 42.88597 66.23178 32966 ft 490 kts 74°
2026-05-05 02:47 42.90413 66.32122 33003 ft 491 kts 74°
2026-05-05 02:48 42.92222 66.41074 32999 ft 492 kts 74°
2026-05-05 02:48 42.94017 66.49992 32999 ft 490 kts 74°
2026-05-05 02:49 42.95814 66.58960 33007 ft 490 kts 74°
2026-05-05 02:49 42.97626 66.67909 33016 ft 490 kts 75°
2026-05-05 02:50 42.99425 66.76788 32987 ft 489 kts 75°
2026-05-05 02:50 43.01209 66.85728 33014 ft 488 kts 75°
2026-05-05 02:51 43.02972 66.94649 33005 ft 486 kts 75°
2026-05-05 02:51 43.04713 67.03502 33010 ft 487 kts 75°
2026-05-05 02:52 43.06462 67.12431 33011 ft 486 kts 75°
2026-05-05 02:52 43.08190 67.21295 33002 ft 487 kts 75°
2026-05-05 02:53 43.09927 67.30239 33011 ft 489 kts 75°
2026-05-05 02:53 43.11661 67.39212 33008 ft 488 kts 75°
2026-05-05 02:54 43.13372 67.48103 33010 ft 487 kts 75°
2026-05-05 02:54 43.15092 67.57069 33009 ft 486 kts 75°
2026-05-05 02:55 43.16801 67.66020 33010 ft 486 kts 75°
2026-05-05 02:55 43.18496 67.74940 33009 ft 485 kts 75°
2026-05-05 02:56 43.20176 67.83826 33007 ft 485 kts 75°
2026-05-05 02:56 43.21854 67.92748 33011 ft 485 kts 75°
2026-05-05 02:57 43.23529 68.01694 33014 ft 485 kts 75°
2026-05-05 02:57 43.25199 68.10661 33017 ft 486 kts 75°
2026-05-05 02:58 43.26862 68.19630 33027 ft 486 kts 75°
2026-05-05 02:58 43.28514 68.28577 33025 ft 485 kts 75°
2026-05-05 02:59 43.30092 68.37496 33028 ft 485 kts 78°
2026-05-05 02:59 43.31210 68.46599 33033 ft 484 kts 79°
2026-05-05 03:00 43.32290 68.55658 33030 ft 486 kts 79°
2026-05-05 03:00 43.33218 68.64842 33035 ft 485 kts 82°
2026-05-05 03:01 43.33979 68.73998 33022 ft 483 kts 83°
2026-05-05 03:01 43.34739 68.83106 33034 ft 483 kts 82°
2026-05-05 03:02 43.35505 68.92270 33037 ft 483 kts 82°
2026-05-05 03:02 43.36263 69.01376 33051 ft 482 kts 82°
2026-05-05 03:03 43.37016 69.10486 33054 ft 483 kts 82°
2026-05-05 03:03 43.37767 69.19601 33060 ft 482 kts 82°
2026-05-05 03:04 43.38563 69.28736 33053 ft 483 kts 82°
2026-05-05 03:04 43.39349 69.37814 33076 ft 481 kts 82°
2026-05-05 03:05 43.40132 69.46973 33066 ft 481 kts 82°
2026-05-05 03:05 43.40899 69.56019 33095 ft 480 kts 82°
2026-05-05 03:06 43.41658 69.65080 33084 ft 479 kts 82°
2026-05-05 03:06 43.42416 69.74213 33098 ft 481 kts 82°
2026-05-05 03:07 43.43185 69.83251 33091 ft 479 kts 82°
2026-05-05 03:07 43.43957 69.92271 33094 ft 477 kts 82°
2026-05-05 03:08 43.44721 70.01302 33096 ft 474 kts 82°
2026-05-05 03:08 43.45475 70.10292 33091 ft 476 kts 82°
2026-05-05 03:09 43.46219 70.19269 33083 ft 475 kts 82°
2026-05-05 03:09 43.46961 70.28301 33085 ft 475 kts 82°
2026-05-05 03:10 43.47691 70.37283 33085 ft 475 kts 82°
2026-05-05 03:10 43.48415 70.46275 33075 ft 474 kts 82°
2026-05-05 03:11 43.49129 70.55238 33086 ft 473 kts 82°
2026-05-05 03:11 43.49835 70.64187 33079 ft 472 kts 82°
2026-05-05 03:12 43.50536 70.73162 33073 ft 472 kts 83°
2026-05-05 03:12 43.51231 70.82159 33074 ft 472 kts 82°
2026-05-05 03:13 43.51909 70.91081 33069 ft 471 kts 83°
2026-05-05 03:13 43.52580 71.00079 33072 ft 471 kts 83°
2026-05-05 03:14 43.53235 71.08971 33064 ft 472 kts 83°
2026-05-05 03:14 43.53891 71.17956 33065 ft 471 kts 83°
2026-05-05 03:15 43.54537 71.26921 33063 ft 471 kts 83°
2026-05-05 03:15 43.55173 71.35822 33070 ft 470 kts 83°
2026-05-05 03:16 43.55802 71.44734 33071 ft 470 kts 83°
2026-05-05 03:16 43.56425 71.53664 33068 ft 469 kts 83°
2026-05-05 03:17 43.57042 71.62606 33067 ft 469 kts 83°
2026-05-05 03:17 43.57652 71.71540 33075 ft 468 kts 84°
2026-05-05 03:18 43.58251 71.80432 33081 ft 471 kts 83°
2026-05-05 03:18 43.58846 71.89366 33078 ft 470 kts 84°
2026-05-05 03:19 43.59728 72.02800 33078 ft 470 kts 84°
2026-05-05 03:19 43.60307 72.11752 33098 ft 469 kts 84°
2026-05-05 03:20 43.60875 72.20637 33090 ft 468 kts 84°
2026-05-05 03:20 43.61437 72.29561 33092 ft 469 kts 84°
2026-05-05 03:21 43.61998 72.38554 33102 ft 470 kts 84°
2026-05-05 03:21 43.62543 72.47432 33085 ft 469 kts 84°
2026-05-05 03:22 43.63083 72.56323 33080 ft 467 kts 84°
2026-05-05 03:22 43.63618 72.65256 33095 ft 471 kts 85°
2026-05-05 03:23 43.64149 72.74230 33069 ft 469 kts 85°
2026-05-05 03:23 43.64669 72.83150 33085 ft 470 kts 85°
2026-05-05 03:24 43.65187 72.92156 33077 ft 471 kts 84°
2026-05-05 03:24 43.65696 73.01113 33074 ft 471 kts 85°
2026-05-05 03:25 43.66195 73.10024 33087 ft 469 kts 85°
2026-05-05 03:25 43.66688 73.18961 33086 ft 468 kts 85°
2026-05-05 03:26 43.67176 73.27932 33082 ft 471 kts 85°
2026-05-05 03:26 43.67654 73.36858 33083 ft 467 kts 84°
2026-05-05 03:27 43.68125 73.45778 33079 ft 471 kts 84°
2026-05-05 03:27 43.68594 73.54787 33075 ft 470 kts 84°
2026-05-05 03:28 43.69050 73.63702 33091 ft 470 kts 84°
2026-05-05 03:28 43.69504 73.72694 33092 ft 469 kts 85°
2026-05-05 03:29 43.69614 73.81797 33490 ft 478 kts 89°
2026-05-05 03:29 43.69615 73.86308 34344 ft 471 kts 89°
2026-05-05 03:29 43.69614 73.90776 34886 ft 468 kts 89°
2026-05-05 03:30 43.69611 73.95312 35116 ft 471 kts 89°
2026-05-05 03:30 43.69606 73.99759 35095 ft 469 kts 89°
2026-05-05 03:30 43.69591 74.08675 35090 ft 466 kts 89°
2026-05-05 03:31 43.69569 74.17646 35075 ft 466 kts 89°
2026-05-05 03:31 43.69541 74.26585 35117 ft 469 kts 89°
2026-05-05 03:32 43.69505 74.35559 35143 ft 469 kts 89°
2026-05-05 03:32 43.69462 74.44492 35118 ft 469 kts 89°
2026-05-05 03:33 43.69412 74.53507 35169 ft 469 kts 89°
2026-05-05 03:33 43.69355 74.62447 35149 ft 470 kts 89°
2026-05-05 03:34 43.69291 74.71434 35123 ft 468 kts 90°
2026-05-05 03:34 43.69220 74.80380 35107 ft 470 kts 90°
2026-05-05 03:35 43.69142 74.89372 35179 ft 470 kts 90°
2026-05-05 03:35 43.69057 74.98360 35128 ft 471 kts 90°
2026-05-05 03:36 43.68964 75.07404 35176 ft 472 kts 90°
2026-05-05 03:36 43.68864 75.16428 35150 ft 470 kts 90°
2026-05-05 03:37 43.68757 75.25456 35162 ft 473 kts 90°
2026-05-05 03:37 43.68643 75.34469 35199 ft 470 kts 90°
2026-05-05 03:38 43.68522 75.43496 35177 ft 472 kts 90°
2026-05-05 03:38 43.68395 75.52478 35173 ft 473 kts 90°
2026-05-05 03:39 43.68259 75.61571 35186 ft 474 kts 90°
2026-05-05 03:39 43.68115 75.70641 35191 ft 474 kts 90°
2026-05-05 03:40 43.67965 75.79691 35174 ft 474 kts 90°
2026-05-05 03:40 43.67807 75.88792 35174 ft 474 kts 90°
2026-05-05 03:41 43.67642 75.97883 35184 ft 475 kts 90°
2026-05-05 03:41 43.67471 76.06938 35169 ft 473 kts 90°
2026-05-05 03:42 43.67291 76.16036 35177 ft 476 kts 90°
2026-05-05 03:42 43.67104 76.25119 35187 ft 476 kts 90°
2026-05-05 03:43 43.66910 76.34254 35194 ft 478 kts 90°
2026-05-05 03:43 43.66708 76.43356 35189 ft 478 kts 90°
2026-05-05 03:44 43.66499 76.52492 35186 ft 477 kts 90°
2026-05-05 03:44 43.66283 76.61594 35192 ft 477 kts 90°
2026-05-05 03:45 43.66059 76.70711 35168 ft 477 kts 91°
2026-05-05 03:45 43.65841 76.79882 35169 ft 479 kts 91°
2026-05-05 03:46 43.65630 76.89032 35167 ft 479 kts 91°
2026-05-05 03:46 43.65408 76.98214 35134 ft 479 kts 91°
2026-05-05 03:47 43.65179 77.07413 35153 ft 481 kts 91°
2026-05-05 03:47 43.64943 77.16605 35189 ft 480 kts 91°
2026-05-05 03:48 43.64700 77.25734 35180 ft 481 kts 91°
2026-05-05 03:48 43.64448 77.34943 35179 ft 479 kts 91°
2026-05-05 03:49 43.64189 77.44140 35191 ft 482 kts 91°
2026-05-05 03:49 43.63923 77.53308 35142 ft 481 kts 91°
2026-05-05 03:50 43.63648 77.62525 35193 ft 482 kts 91°
2026-05-05 03:50 43.63367 77.71722 35172 ft 482 kts 91°
2026-05-05 03:51 43.63076 77.80965 35204 ft 482 kts 91°
2026-05-05 03:51 43.62779 77.90198 35182 ft 483 kts 91°
2026-05-05 03:52 43.62476 77.99383 35200 ft 483 kts 91°
2026-05-05 03:52 43.62162 78.08641 35194 ft 484 kts 91°
2026-05-05 03:53 43.61843 78.17857 35187 ft 484 kts 91°
2026-05-05 03:53 43.61515 78.27099 35177 ft 484 kts 91°
2026-05-05 03:54 43.61179 78.36378 35195 ft 485 kts 91°
2026-05-05 03:54 43.60838 78.45570 35193 ft 484 kts 91°
2026-05-05 03:55 43.60487 78.54851 35182 ft 484 kts 91°
2026-05-05 03:55 43.60131 78.64059 35197 ft 485 kts 91°
2026-05-05 03:56 43.59764 78.73347 35203 ft 485 kts 92°
2026-05-05 03:56 43.59390 78.82624 35188 ft 485 kts 92°
2026-05-05 03:57 43.59008 78.91900 35185 ft 486 kts 92°
2026-05-05 03:57 43.58620 79.01155 35171 ft 485 kts 92°
2026-05-05 03:58 43.58223 79.10444 35171 ft 486 kts 92°
2026-05-05 03:58 43.57821 79.19676 35165 ft 487 kts 92°
2026-05-05 03:59 43.57408 79.28980 35160 ft 487 kts 92°
2026-05-05 03:59 43.56988 79.38263 35159 ft 487 kts 92°
2026-05-05 04:00 43.56560 79.47580 35162 ft 488 kts 92°
2026-05-05 04:00 43.56124 79.56873 35167 ft 488 kts 92°
2026-05-05 04:01 43.55680 79.66198 35174 ft 489 kts 93°
2026-05-05 04:01 43.55229 79.75501 35173 ft 489 kts 93°
2026-05-05 04:02 43.54770 79.84823 35175 ft 489 kts 93°
2026-05-05 04:02 43.54305 79.94096 35166 ft 489 kts 93°
2026-05-05 04:03 43.53829 80.03445 35190 ft 489 kts 93°
2026-05-05 04:03 43.53346 80.12777 35203 ft 490 kts 93°
2026-05-05 04:04 43.52856 80.22105 35197 ft 490 kts 93°
2026-05-05 04:04 43.52359 80.31406 35199 ft 491 kts 93°
2026-05-05 04:05 43.51850 80.40795 35197 ft 491 kts 93°
2026-05-05 04:05 43.51339 80.50089 35192 ft 493 kts 93°
2026-05-05 04:06 43.50814 80.59482 35192 ft 492 kts 93°
2026-05-05 04:06 43.50282 80.68862 35204 ft 492 kts 94°
2026-05-05 04:07 43.49861 80.78217 35197 ft 493 kts 90°
2026-05-05 04:07 43.49766 80.87632 35198 ft 493 kts 90°
2026-05-05 04:08 43.49652 80.97034 35187 ft 494 kts 90°
2026-05-05 04:08 43.49517 81.06435 35209 ft 494 kts 90°
2026-05-05 04:09 43.49366 81.15857 35195 ft 493 kts 90°
2026-05-05 04:09 43.49205 81.25295 35205 ft 494 kts 90°
2026-05-05 04:10 43.49033 81.34742 35205 ft 494 kts 90°
2026-05-05 04:10 43.48853 81.44136 35207 ft 495 kts 90°
2026-05-05 04:11 43.48664 81.53608 35219 ft 495 kts 90°
2026-05-05 04:11 43.48468 81.63037 35230 ft 496 kts 90°
2026-05-05 04:12 43.48260 81.72482 35228 ft 497 kts 91°
2026-05-05 04:12 43.48032 81.81963 35236 ft 496 kts 91°
2026-05-05 04:13 43.47796 81.91446 35229 ft 497 kts 91°
2026-05-05 04:13 43.47554 82.00897 35227 ft 498 kts 91°
2026-05-05 04:14 43.47302 82.10410 35231 ft 499 kts 91°
2026-05-05 04:14 43.47042 82.19910 35239 ft 497 kts 91°
2026-05-05 04:15 43.46776 82.29383 35238 ft 498 kts 91°
2026-05-05 04:15 43.46502 82.38861 35233 ft 499 kts 91°
2026-05-05 04:16 43.46217 82.48407 35248 ft 498 kts 91°
2026-05-05 04:16 43.45928 82.57859 35282 ft 499 kts 91°
2026-05-05 04:17 43.45628 82.67411 35278 ft 500 kts 92°
2026-05-05 04:17 43.45320 82.76918 35289 ft 500 kts 92°
2026-05-05 04:18 43.45005 82.86443 35292 ft 501 kts 92°
2026-05-05 04:18 43.44683 82.95928 35321 ft 500 kts 92°
2026-05-05 04:19 43.44352 83.05456 35323 ft 501 kts 92°
2026-05-05 04:19 43.44011 83.15033 35334 ft 501 kts 92°
2026-05-05 04:20 43.43666 83.24505 35340 ft 502 kts 92°
2026-05-05 04:20 43.43308 83.34101 35338 ft 501 kts 92°
2026-05-05 04:21 43.42789 83.43626 35344 ft 502 kts 96°
2026-05-05 04:21 43.41953 83.53122 35359 ft 504 kts 96°
2026-05-05 04:22 43.41124 83.62617 35360 ft 503 kts 96°
2026-05-05 04:22 43.40295 83.72164 35355 ft 503 kts 97°
2026-05-05 04:23 43.39465 83.81712 35379 ft 505 kts 97°
2026-05-05 04:23 43.38631 83.91251 35372 ft 504 kts 97°
2026-05-05 04:24 43.37794 84.00761 35375 ft 506 kts 97°
2026-05-05 04:25 43.36520 84.15079 35336 ft 505 kts 97°
2026-05-05 04:25 43.35659 84.24646 35342 ft 505 kts 97°
2026-05-05 04:26 43.34791 84.34202 35309 ft 505 kts 97°
2026-05-05 04:26 43.33908 84.43696 35286 ft 505 kts 97°
2026-05-05 04:27 43.33000 84.53251 35295 ft 507 kts 97°
2026-05-05 04:27 43.32084 84.62813 35288 ft 507 kts 97°
2026-05-05 04:28 43.31160 84.72384 35271 ft 506 kts 98°
2026-05-05 04:28 43.30233 84.81893 35267 ft 505 kts 98°
2026-05-05 04:29 43.29293 84.91454 35236 ft 506 kts 98°
2026-05-05 04:29 43.28353 85.00943 35234 ft 506 kts 98°
2026-05-05 04:30 43.27403 85.10439 35236 ft 507 kts 98°
2026-05-05 04:30 43.26438 85.20007 35266 ft 507 kts 98°
2026-05-05 04:31 43.25474 85.29491 35265 ft 506 kts 98°
2026-05-05 04:31 43.24497 85.39017 35271 ft 507 kts 99°
2026-05-05 04:32 43.23508 85.48576 35261 ft 508 kts 99°
2026-05-05 04:32 43.22514 85.58104 35289 ft 510 kts 98°
2026-05-05 04:33 43.21510 85.67662 35284 ft 506 kts 99°
2026-05-05 04:33 43.20496 85.77222 35265 ft 510 kts 99°
2026-05-05 04:34 43.19492 85.86753 35275 ft 508 kts 97°
2026-05-05 04:34 43.19736 85.96399 35271 ft 511 kts 78°
2026-05-05 04:35 43.22012 86.05487 35255 ft 509 kts 60°
2026-05-05 04:35 43.25845 86.13583 35258 ft 507 kts 53°
2026-05-05 04:36 43.29808 86.21523 35317 ft 508 kts 53°
2026-05-05 04:36 43.33785 86.29524 35269 ft 508 kts 53°
2026-05-05 04:37 43.37725 86.37539 35242 ft 509 kts 54°
2026-05-05 04:37 43.41640 86.45567 35264 ft 508 kts 54°
2026-05-05 04:38 43.45592 86.53654 35258 ft 509 kts 53°
2026-05-05 04:38 43.49529 86.61727 35275 ft 510 kts 53°
2026-05-05 04:39 43.53454 86.69809 35249 ft 512 kts 54°
2026-05-05 04:39 43.57340 86.77925 35294 ft 509 kts 55°
2026-05-05 04:40 43.61233 86.86151 35227 ft 510 kts 55°
2026-05-05 04:40 43.65098 86.94338 35216 ft 513 kts 55°
2026-05-05 04:41 43.68977 87.02576 35215 ft 513 kts 54°
2026-05-05 04:41 43.72850 87.10825 35170 ft 515 kts 54°
2026-05-05 04:42 43.76736 87.19132 35106 ft 514 kts 55°
2026-05-05 04:42 43.80580 87.27380 35103 ft 517 kts 55°
2026-05-05 04:43 43.84450 87.35706 35095 ft 516 kts 55°
2026-05-05 04:43 43.88332 87.44080 35073 ft 516 kts 54°
2026-05-05 04:44 43.92187 87.52396 35076 ft 515 kts 52°
2026-05-05 04:44 43.96493 87.60274 35082 ft 513 kts 49°
2026-05-05 04:45 44.00847 87.68120 35079 ft 516 kts 50°
2026-05-05 04:45 44.05197 87.76036 35074 ft 515 kts 50°
2026-05-05 04:46 44.09522 87.83955 35080 ft 516 kts 50°
2026-05-05 04:46 44.13852 87.91923 35101 ft 516 kts 51°
2026-05-05 04:47 44.17316 88.00650 35093 ft 522 kts 69°
2026-05-05 04:47 44.19121 88.10390 35106 ft 522 kts 77°
2026-05-05 04:48 44.20607 88.20261 35098 ft 524 kts 78°
2026-05-05 04:48 44.22082 88.30175 35093 ft 524 kts 78°
2026-05-05 04:49 44.23539 88.40038 35084 ft 523 kts 78°
2026-05-05 04:49 44.24997 88.49986 35075 ft 523 kts 78°
2026-05-05 04:50 44.26440 88.59895 35077 ft 524 kts 78°
2026-05-05 04:50 44.27872 88.69798 35066 ft 524 kts 79°
2026-05-05 04:51 44.29298 88.79729 35059 ft 523 kts 79°
2026-05-05 04:51 44.30709 88.89611 35068 ft 523 kts 79°
2026-05-05 04:52 44.32127 88.99612 35067 ft 524 kts 79°
2026-05-05 04:52 44.33522 89.09516 35068 ft 524 kts 79°
2026-05-05 04:53 44.34914 89.19472 35063 ft 525 kts 79°
2026-05-05 04:53 44.36303 89.29469 35091 ft 526 kts 79°
2026-05-05 04:54 44.37676 89.39410 35075 ft 524 kts 79°
2026-05-05 04:54 44.39051 89.49441 35082 ft 526 kts 79°
2026-05-05 04:55 44.40409 89.59417 35085 ft 526 kts 79°
2026-05-05 04:55 44.40888 89.69550 35039 ft 523 kts 97°
2026-05-05 04:56 44.39409 89.79441 35070 ft 520 kts 109°
2026-05-05 04:56 44.37396 89.89074 35087 ft 520 kts 109°
2026-05-05 04:57 44.35342 89.98684 35068 ft 518 kts 109°
2026-05-05 04:57 44.33258 90.08312 35084 ft 519 kts 110°
2026-05-05 04:58 44.31152 90.17954 35074 ft 520 kts 110°
2026-05-05 04:58 44.29045 90.27527 35064 ft 520 kts 110°
2026-05-05 04:59 44.26915 90.37154 35082 ft 520 kts 110°
2026-05-05 04:59 44.24787 90.46718 35088 ft 522 kts 110°
2026-05-05 05:00 44.22645 90.56300 35090 ft 520 kts 110°
2026-05-05 05:00 44.20493 90.65881 35082 ft 520 kts 110°
2026-05-05 05:01 44.18327 90.75480 35093 ft 518 kts 111°
2026-05-05 05:01 44.16170 90.84994 35111 ft 519 kts 110°
2026-05-05 05:02 44.13995 90.94548 35081 ft 520 kts 110°
2026-05-05 05:02 44.11802 91.04138 35084 ft 519 kts 111°
2026-05-05 05:03 44.09626 91.13620 35107 ft 519 kts 110°
2026-05-05 05:03 44.07430 91.23150 35111 ft 521 kts 111°
2026-05-05 05:04 44.05227 91.32669 35100 ft 518 kts 111°
2026-05-05 05:04 44.03006 91.42223 35118 ft 521 kts 111°
2026-05-05 05:05 44.00771 91.51717 35126 ft 521 kts 111°
2026-05-05 05:05 43.98509 91.61265 35124 ft 522 kts 111°
2026-05-05 05:06 43.96233 91.70831 35116 ft 521 kts 112°
2026-05-05 05:06 43.93968 91.80314 35116 ft 525 kts 111°
2026-05-05 05:07 43.91663 91.89919 35132 ft 527 kts 111°
2026-05-05 05:07 43.89365 91.99467 35108 ft 523 kts 112°
2026-05-05 05:08 43.87060 92.08996 35084 ft 522 kts 112°
2026-05-05 05:08 43.84752 92.18497 35092 ft 525 kts 112°
2026-05-05 05:09 43.82413 92.28088 35081 ft 526 kts 112°
2026-05-05 05:09 43.80065 92.37672 35077 ft 532 kts 112°
2026-05-05 05:10 43.77702 92.47284 35094 ft 530 kts 112°
2026-05-05 05:10 43.75334 92.56873 35091 ft 529 kts 113°
2026-05-05 05:11 43.72950 92.66479 35077 ft 532 kts 113°
2026-05-05 05:11 43.70561 92.76080 35034 ft 528 kts 114°
2026-05-05 05:12 43.68146 92.85730 35087 ft 532 kts 113°
2026-05-05 05:12 43.65742 92.95306 35062 ft 533 kts 113°
2026-05-05 05:13 43.63354 93.05013 35059 ft 532 kts 112°
2026-05-05 05:13 43.61061 93.14654 35072 ft 533 kts 112°
2026-05-05 05:14 43.58743 93.24339 35069 ft 535 kts 112°
2026-05-05 05:14 43.56419 93.33997 35036 ft 533 kts 112°
2026-05-05 05:15 43.54073 93.43687 35028 ft 539 kts 112°
2026-05-05 05:15 43.51704 93.53436 35050 ft 538 kts 112°
2026-05-05 05:15 43.50515 93.58314 35196 ft 533 kts 112°
2026-05-05 05:16 43.49336 93.63133 35062 ft 542 kts 112°
2026-05-05 05:16 43.46949 93.72874 35149 ft 537 kts 113°
2026-05-05 05:17 43.44549 93.82613 35072 ft 540 kts 113°
2026-05-05 05:17 43.42133 93.92382 35030 ft 540 kts 114°
2026-05-05 05:18 43.39714 94.02118 35065 ft 541 kts 113°
2026-05-05 05:18 43.37284 94.11862 35079 ft 541 kts 114°
2026-05-05 05:19 43.34825 94.21671 35105 ft 545 kts 113°
2026-05-05 05:19 43.32386 94.31375 35056 ft 541 kts 113°
2026-05-05 05:20 43.29900 94.41206 35104 ft 547 kts 114°
2026-05-05 05:20 43.27419 94.50992 35063 ft 544 kts 114°
2026-05-05 05:21 43.24910 94.60828 35110 ft 553 kts 113°
2026-05-05 05:21 43.22410 94.70614 35072 ft 546 kts 115°
2026-05-05 05:22 43.19871 94.80493 35062 ft 551 kts 115°
2026-05-05 05:22 43.17337 94.90318 35067 ft 549 kts 115°
2026-05-05 05:23 43.14652 95.00078 35091 ft 545 kts 123°
2026-05-05 05:23 43.10611 95.08512 35019 ft 526 kts 141°
2026-05-05 05:23 43.08027 95.11999 35046 ft 513 kts 149°
2026-05-05 05:24 43.05225 95.14954 35109 ft 512 kts 153°
2026-05-05 05:24 42.99707 95.20350 35072 ft 503 kts 154°
2026-05-05 05:25 42.93960 95.25833 35062 ft 506 kts 155°
2026-05-05 05:25 42.88221 95.31232 35083 ft 507 kts 155°
2026-05-05 05:26 42.82401 95.36661 35063 ft 501 kts 155°
2026-05-05 05:26 42.76645 95.41995 35065 ft 506 kts 155°
2026-05-05 05:27 42.70895 95.47310 35074 ft 497 kts 155°
2026-05-05 05:27 42.62304 95.55210 35052 ft 496 kts 155°
2026-05-05 05:28 42.56610 95.60429 35058 ft 496 kts 155°
2026-05-05 05:28 42.50860 95.65682 35039 ft 499 kts 156°
2026-05-05 05:29 42.45318 95.71313 35044 ft 507 kts 144°
2026-05-05 05:29 42.42954 95.74875 35024 ft 518 kts 135°
2026-05-05 05:29 42.40932 95.78992 35060 ft 535 kts 126°
2026-05-05 05:30 42.38215 95.88431 35074 ft 540 kts 107°
2026-05-05 05:30 42.37557 95.98555 35089 ft 551 kts 92°
2026-05-05 05:31 42.37555 96.08940 35077 ft 551 kts 93°
2026-05-05 05:31 42.37432 96.19289 35067 ft 556 kts 93°
2026-05-05 05:32 42.37225 96.29676 35071 ft 554 kts 94°
2026-05-05 05:32 42.36963 96.40058 35078 ft 551 kts 94°
2026-05-05 05:33 42.36671 96.50359 35090 ft 553 kts 94°
2026-05-05 05:33 42.36353 96.60741 35068 ft 551 kts 95°
2026-05-05 05:34 42.36015 96.71152 35030 ft 557 kts 95°
2026-05-05 05:34 42.35667 96.81521 35022 ft 556 kts 96°
2026-05-05 05:35 42.35305 96.91908 35043 ft 557 kts 95°
2026-05-05 05:35 42.34936 97.02216 35042 ft 552 kts 95°
2026-05-05 05:36 42.34552 97.12618 35030 ft 554 kts 95°
2026-05-05 05:36 42.34163 97.22932 35062 ft 553 kts 95°
2026-05-05 05:37 42.33758 97.33355 35015 ft 557 kts 95°
2026-05-05 05:37 42.33347 97.43749 35014 ft 557 kts 95°
2026-05-05 05:38 42.32924 97.54153 35027 ft 558 kts 95°
2026-05-05 05:38 42.32492 97.64587 35020 ft 555 kts 95°
2026-05-05 05:39 42.32049 97.75012 35009 ft 559 kts 95°
2026-05-05 05:39 42.31597 97.85466 34992 ft 558 kts 95°
2026-05-05 05:40 42.31134 97.95915 34972 ft 562 kts 95°
2026-05-05 05:40 42.30665 98.06328 34988 ft 557 kts 95°
2026-05-05 05:41 42.30185 98.16747 34986 ft 560 kts 95°
2026-05-05 05:41 42.29691 98.27250 34974 ft 563 kts 95°
2026-05-05 05:42 42.29178 98.37742 34956 ft 559 kts 95°
2026-05-05 05:42 42.28641 98.48183 34937 ft 562 kts 95°
2026-05-05 05:43 42.28098 98.58556 34953 ft 558 kts 95°
2026-05-05 05:43 42.27540 98.69041 34893 ft 564 kts 96°
2026-05-05 05:44 42.26974 98.79530 34884 ft 561 kts 96°
2026-05-05 05:44 42.26401 98.89949 34913 ft 559 kts 96°
2026-05-05 05:45 42.25814 99.00446 34889 ft 563 kts 96°
2026-05-05 05:45 42.25222 99.10883 34927 ft 558 kts 95°
2026-05-05 05:46 42.24616 99.21370 34887 ft 562 kts 95°
2026-05-05 05:46 42.24009 99.31742 34871 ft 560 kts 95°
2026-05-05 05:47 42.23387 99.42181 34854 ft 560 kts 95°
2026-05-05 05:47 42.22748 99.52741 34867 ft 565 kts 95°
2026-05-05 05:48 42.22109 99.63166 34886 ft 560 kts 96°
2026-05-05 05:48 42.21458 99.73613 34842 ft 562 kts 97°
2026-05-05 05:49 42.20799 99.84029 34861 ft 558 kts 96°
2026-05-05 05:49 42.20125 99.94529 34838 ft 562 kts 96°
2026-05-05 05:50 42.19444 100.04993 34809 ft 563 kts 96°
2026-05-05 05:50 42.18753 100.15466 34798 ft 560 kts 96°
2026-05-05 05:51 42.18059 100.25852 34816 ft 564 kts 96°
2026-05-05 05:51 42.17348 100.36324 34805 ft 565 kts 96°
2026-05-05 05:52 42.16627 100.46816 34811 ft 564 kts 96°
2026-05-05 05:52 42.15903 100.57212 34823 ft 559 kts 96°
2026-05-05 05:53 42.15167 100.67637 34790 ft 560 kts 97°
2026-05-05 05:53 42.14415 100.78143 34786 ft 565 kts 96°
2026-05-05 05:54 42.13663 100.88521 34787 ft 563 kts 96°
2026-05-05 05:54 42.12892 100.99021 34773 ft 559 kts 96°
2026-05-05 05:55 42.11129 101.09141 34783 ft 562 kts 110°
2026-05-05 05:55 42.08608 101.19021 34779 ft 561 kts 111°
2026-05-05 05:56 42.06051 101.28857 34776 ft 560 kts 111°
2026-05-05 05:56 42.03455 101.38761 34793 ft 559 kts 111°
2026-05-05 05:57 42.00861 101.48598 34807 ft 558 kts 111°
2026-05-05 05:57 41.98272 101.58362 34783 ft 562 kts 111°
2026-05-05 05:58 41.95646 101.68218 34771 ft 559 kts 112°
2026-05-05 05:58 41.93011 101.78063 34750 ft 561 kts 112°
2026-05-05 05:59 41.90388 101.87824 34767 ft 562 kts 111°
2026-05-05 05:59 41.87731 101.97669 34797 ft 565 kts 112°
2026-05-05 06:00 41.85052 102.07552 34791 ft 563 kts 111°
2026-05-05 06:00 41.82374 102.17397 34798 ft 563 kts 112°
2026-05-05 06:01 41.79696 102.27203 34791 ft 563 kts 112°
2026-05-05 06:01 41.77014 102.36981 34790 ft 563 kts 111°
2026-05-05 06:02 41.74312 102.46794 34788 ft 560 kts 112°
2026-05-05 06:02 41.71610 102.56570 34819 ft 563 kts 111°
2026-05-05 06:03 41.68895 102.66355 34879 ft 564 kts 112°
2026-05-05 06:03 41.67536 102.71239 34775 ft 562 kts 112°
2026-05-05 06:03 41.66177 102.76118 34824 ft 565 kts 113°
2026-05-05 06:04 41.63424 102.85969 34825 ft 563 kts 112°
2026-05-05 06:04 41.60689 102.95718 34818 ft 566 kts 112°
2026-05-05 06:05 41.57927 103.05524 34821 ft 563 kts 112°
2026-05-05 06:05 41.55175 103.15248 34833 ft 568 kts 112°
2026-05-05 06:06 41.52390 103.25052 34869 ft 570 kts 112°
2026-05-05 06:06 41.49601 103.34830 34782 ft 563 kts 111°
2026-05-05 06:07 41.46813 103.44569 34801 ft 566 kts 111°
2026-05-05 06:07 41.43991 103.54395 34814 ft 566 kts 112°
2026-05-05 06:08 41.41184 103.64130 34822 ft 562 kts 111°
2026-05-05 06:08 41.38360 103.73881 34805 ft 571 kts 113°
2026-05-05 06:09 41.35523 103.83643 34802 ft 565 kts 112°
2026-05-05 06:09 41.32664 103.93443 34793 ft 570 kts 112°
2026-05-05 06:10 41.29840 104.03091 34808 ft 567 kts 112°
2026-05-05 06:10 41.26964 104.12875 34755 ft 566 kts 111°
2026-05-05 06:11 41.24117 104.22524 34840 ft 565 kts 112°
2026-05-05 06:11 41.21238 104.32249 34744 ft 568 kts 112°
2026-05-05 06:12 41.18357 104.41943 34808 ft 568 kts 111°
2026-05-05 06:12 41.15459 104.51659 34814 ft 567 kts 111°
2026-05-05 06:13 41.12567 104.61316 34836 ft 565 kts 111°
2026-05-05 06:13 41.09658 104.70998 34838 ft 565 kts 113°
2026-05-05 06:14 41.06493 104.80513 34844 ft 562 kts 115°
2026-05-05 06:14 41.03292 104.89912 34854 ft 565 kts 114°
2026-05-05 06:15 41.00060 104.99404 34866 ft 565 kts 114°
2026-05-05 06:15 40.96860 105.08792 34876 ft 566 kts 115°
2026-05-05 06:16 40.93622 105.18270 34864 ft 563 kts 114°
2026-05-05 06:16 40.90406 105.27659 34860 ft 562 kts 115°
2026-05-05 06:17 40.87191 105.37014 34843 ft 563 kts 114°
2026-05-05 06:17 40.83945 105.46434 34849 ft 564 kts 114°
2026-05-05 06:18 40.80716 105.55775 34836 ft 561 kts 114°
2026-05-05 06:18 40.77457 105.65173 34851 ft 564 kts 115°
2026-05-05 06:19 40.74223 105.74467 34836 ft 561 kts 114°
2026-05-05 06:19 40.70954 105.83828 34827 ft 562 kts 114°
2026-05-05 06:20 40.67702 105.93116 34827 ft 561 kts 114°
2026-05-05 06:20 40.64424 106.02446 34824 ft 561 kts 114°
2026-05-05 06:21 40.61156 106.11713 34848 ft 562 kts 115°
2026-05-05 06:21 40.57862 106.21027 34853 ft 561 kts 114°
2026-05-05 06:22 40.54584 106.30267 34839 ft 559 kts 114°
2026-05-05 06:22 40.51289 106.39522 34800 ft 562 kts 114°
2026-05-05 06:23 40.48008 106.48712 34810 ft 561 kts 114°
2026-05-05 06:23 40.44682 106.57996 34778 ft 560 kts 114°
2026-05-05 06:24 40.41382 106.67177 34785 ft 558 kts 115°
2026-05-05 06:24 40.38068 106.76369 34784 ft 562 kts 115°
2026-05-05 06:25 40.34721 106.85621 34771 ft 558 kts 114°
2026-05-05 06:25 40.32297 106.95191 34782 ft 557 kts 97°
2026-05-05 06:26 40.31901 107.05093 34796 ft 545 kts 79°
2026-05-05 06:26 40.33022 107.14765 34808 ft 535 kts 73°
2026-05-05 06:27 40.34862 107.29131 34823 ft 535 kts 74°
2026-05-05 06:28 40.36073 107.38831 34816 ft 539 kts 74°
2026-05-05 06:28 40.37247 107.48408 34799 ft 537 kts 74°
2026-05-05 06:29 40.38419 107.58061 34829 ft 537 kts 75°
2026-05-05 06:29 40.39574 107.67664 34780 ft 537 kts 75°
2026-05-05 06:30 40.40728 107.77338 34762 ft 539 kts 75°
2026-05-05 06:30 40.41858 107.86916 34793 ft 534 kts 76°
2026-05-05 06:31 40.42983 107.96512 34798 ft 532 kts 75°
2026-05-05 06:31 40.44105 108.06162 34780 ft 532 kts 75°
2026-05-05 06:32 40.45204 108.15704 34796 ft 534 kts 76°
2026-05-05 06:32 40.46300 108.25295 34794 ft 533 kts 76°
2026-05-05 06:33 40.47388 108.34890 34804 ft 531 kts 76°
2026-05-05 06:33 40.48468 108.44482 34788 ft 532 kts 76°
2026-05-05 06:34 40.49533 108.54015 34809 ft 530 kts 76°
2026-05-05 06:34 40.50596 108.63599 34813 ft 531 kts 76°
2026-05-05 06:35 40.51649 108.73169 34809 ft 531 kts 76°
2026-05-05 06:35 40.52696 108.82754 34754 ft 535 kts 77°
2026-05-05 06:36 40.53738 108.92387 34779 ft 532 kts 76°
2026-05-05 06:36 40.54762 109.01917 34781 ft 534 kts 76°
2026-05-05 06:37 40.55785 109.11525 34758 ft 531 kts 76°
2026-05-05 06:37 40.56802 109.21146 34812 ft 529 kts 77°
2026-05-05 06:38 40.57796 109.30627 34820 ft 532 kts 76°
2026-05-05 06:38 40.58799 109.40266 34832 ft 532 kts 77°
2026-05-05 06:39 40.59789 109.49877 34823 ft 528 kts 77°
2026-05-05 06:39 40.60767 109.59431 34811 ft 528 kts 77°
2026-05-05 06:40 40.61734 109.68967 34784 ft 530 kts 77°
2026-05-05 06:40 40.62702 109.78591 34799 ft 530 kts 78°
2026-05-05 06:41 40.63650 109.88113 34802 ft 528 kts 77°
2026-05-05 06:41 40.64543 109.97656 34836 ft 529 kts 82°
2026-05-05 06:42 40.64619 110.07391 34833 ft 531 kts 86°
2026-05-05 06:42 40.64576 110.17088 34838 ft 532 kts 86°
2026-05-05 06:43 40.64522 110.26862 34821 ft 534 kts 86°
2026-05-05 06:43 40.64458 110.36586 34843 ft 534 kts 86°
2026-05-05 06:44 40.64386 110.46275 34848 ft 532 kts 86°
2026-05-05 06:44 40.64308 110.55947 34850 ft 533 kts 86°
2026-05-05 06:45 40.64222 110.65642 34861 ft 531 kts 87°
2026-05-05 06:45 40.64128 110.75324 34860 ft 531 kts 88°
2026-05-05 06:46 40.64025 110.85037 34861 ft 531 kts 88°
2026-05-05 06:46 40.63915 110.94656 34849 ft 531 kts 88°
2026-05-05 06:47 40.63796 111.04324 34854 ft 526 kts 88°
2026-05-05 06:47 40.63671 111.13944 34849 ft 529 kts 87°
2026-05-05 06:48 40.63537 111.23594 34836 ft 531 kts 87°
2026-05-05 06:48 40.63394 111.33282 34828 ft 529 kts 88°
2026-05-05 06:49 40.63244 111.42928 34837 ft 527 kts 87°
2026-05-05 06:49 40.63087 111.52537 34824 ft 529 kts 88°
2026-05-05 06:50 40.62921 111.62198 34820 ft 530 kts 88°
2026-05-05 06:50 40.62747 111.71802 34755 ft 527 kts 88°
2026-05-05 06:51 40.62566 111.81435 34770 ft 530 kts 88°
2026-05-05 06:51 40.62377 111.91103 34817 ft 525 kts 88°
2026-05-05 06:52 40.62192 112.00763 34743 ft 530 kts 88°
2026-05-05 06:52 40.61975 112.10371 34780 ft 531 kts 88°
2026-05-05 06:53 40.61758 112.19988 34857 ft 530 kts 88°
2026-05-05 06:53 40.61532 112.29673 34902 ft 530 kts 88°
2026-05-05 06:53 40.61417 112.34469 34759 ft 529 kts 88°
2026-05-05 06:54 40.61299 112.39306 34956 ft 529 kts 88°
2026-05-05 06:54 40.61057 112.48957 34873 ft 529 kts 88°
2026-05-05 06:55 40.60578 112.58560 34863 ft 530 kts 90°
2026-05-05 06:55 40.60004 112.68223 34854 ft 529 kts 91°
2026-05-05 06:56 40.59355 112.77863 34865 ft 531 kts 94°
2026-05-05 06:56 40.58591 112.87437 34846 ft 531 kts 92°
2026-05-05 06:57 40.57952 112.97047 34863 ft 531 kts 92°
2026-05-05 06:57 40.57303 113.06731 34854 ft 531 kts 92°
2026-05-05 06:58 40.56647 113.16384 34859 ft 530 kts 91°
2026-05-05 06:58 40.55990 113.25960 34883 ft 530 kts 92°
2026-05-05 06:59 40.55320 113.35596 34869 ft 530 kts 91°
2026-05-05 06:59 40.54646 113.45189 34862 ft 529 kts 91°
2026-05-05 07:00 40.53965 113.54752 34861 ft 528 kts 91°
2026-05-05 07:00 40.53273 113.64370 34875 ft 531 kts 92°
2026-05-05 07:01 40.52570 113.74004 34869 ft 529 kts 92°
2026-05-05 07:01 40.51866 113.83557 34878 ft 529 kts 92°
2026-05-05 07:02 40.51148 113.93187 34882 ft 530 kts 92°
2026-05-05 07:02 40.50475 114.02718 34871 ft 526 kts 89°
2026-05-05 07:03 40.50096 114.12292 34870 ft 529 kts 89°
2026-05-05 07:03 40.49709 114.21872 34833 ft 525 kts 89°
2026-05-05 07:04 40.49305 114.31453 34814 ft 527 kts 89°
2026-05-05 07:04 40.48889 114.40976 34815 ft 523 kts 89°
2026-05-05 07:05 40.48466 114.50436 34809 ft 524 kts 89°
2026-05-05 07:05 40.48030 114.59967 34831 ft 524 kts 89°
2026-05-05 07:06 40.47584 114.69494 34857 ft 520 kts 89°
2026-05-05 07:06 40.47135 114.78952 34863 ft 523 kts 89°
2026-05-05 07:07 40.46675 114.88415 34843 ft 520 kts 89°
2026-05-05 07:07 40.46209 114.97884 34814 ft 523 kts 89°
2026-05-05 07:08 40.45736 115.07311 34773 ft 518 kts 89°
2026-05-05 07:08 40.45253 115.16811 34778 ft 521 kts 89°
2026-05-05 07:09 40.44764 115.26233 34777 ft 519 kts 89°
2026-05-05 07:09 40.44271 115.35599 34777 ft 519 kts 89°
2026-05-05 07:10 40.43767 115.45041 34793 ft 520 kts 89°
2026-05-05 07:10 40.43256 115.54424 34798 ft 520 kts 90°
2026-05-05 07:10 40.42893 115.59221 35008 ft 529 kts 91°
2026-05-05 07:11 40.42501 115.63965 35774 ft 524 kts 91°
2026-05-05 07:11 40.42109 115.68684 36588 ft 519 kts 92°
2026-05-05 07:11 40.41720 115.73395 36826 ft 523 kts 92°
2026-05-05 07:12 40.40945 115.82754 36799 ft 518 kts 92°
2026-05-05 07:12 40.40162 115.92178 36772 ft 519 kts 92°
2026-05-05 07:13 40.39381 116.01528 36724 ft 520 kts 92°
2026-05-05 07:13 40.38586 116.10945 36729 ft 520 kts 92°
2026-05-05 07:14 40.37787 116.20335 36732 ft 519 kts 92°
2026-05-05 07:14 40.36985 116.29675 36728 ft 518 kts 92°
2026-05-05 07:15 40.36171 116.39063 36740 ft 519 kts 92°
2026-05-05 07:15 40.35352 116.48427 36734 ft 516 kts 92°
2026-05-05 07:16 40.33815 116.57579 36720 ft 525 kts 108°
2026-05-05 07:16 40.30307 116.65951 36717 ft 527 kts 127°
2026-05-05 07:17 40.25169 116.72620 36711 ft 523 kts 146°
2026-05-05 07:17 40.18846 116.77093 36688 ft 517 kts 163°
2026-05-05 07:18 40.11867 116.79187 36712 ft 511 kts 176°
2026-05-05 07:18 40.04870 116.80545 36714 ft 510 kts 176°
2026-05-05 07:19 39.97853 116.81917 36715 ft 511 kts 176°
2026-05-05 07:19 39.90860 116.83295 36679 ft 509 kts 175°
2026-05-05 07:20 39.83840 116.84682 36685 ft 512 kts 175°
2026-05-05 07:20 39.76798 116.86091 36644 ft 509 kts 175°
2026-05-05 07:21 39.69820 116.87538 36635 ft 511 kts 175°
2026-05-05 07:21 39.62816 116.88989 36663 ft 512 kts 175°
2026-05-05 07:22 39.55782 116.90443 36647 ft 512 kts 175°
2026-05-05 07:22 39.48742 116.91894 36675 ft 510 kts 175°
2026-05-05 07:23 39.41730 116.93335 36660 ft 509 kts 175°
2026-05-05 07:23 39.34751 116.94766 36667 ft 513 kts 174°
2026-05-05 07:24 39.27720 116.96414 36668 ft 516 kts 167°
2026-05-05 07:24 39.21178 117.00148 36721 ft 519 kts 148°
2026-05-05 07:25 39.15722 117.06191 36697 ft 523 kts 130°
2026-05-05 07:25 39.11858 117.14029 36722 ft 518 kts 111°
2026-05-05 07:26 39.09894 117.22802 36752 ft 511 kts 97°
2026-05-05 07:26 39.08650 117.31781 36721 ft 511 kts 96°
2026-05-05 07:27 39.07839 117.40768 36722 ft 505 kts 87°
2026-05-05 07:27 39.07731 117.49799 36742 ft 507 kts 86°
2026-05-05 07:28 39.07630 117.58776 36739 ft 503 kts 86°
2026-05-05 07:28 39.07523 117.67796 36715 ft 504 kts 87°
2026-05-05 07:29 39.07409 117.76736 36684 ft 504 kts 87°
2026-05-05 07:29 39.07288 117.85722 36704 ft 503 kts 87°
2026-05-05 07:30 39.07160 117.94648 36705 ft 503 kts 87°
2026-05-05 07:30 39.06295 118.08102 36732 ft 507 kts 98°
2026-05-05 07:31 39.04899 118.16966 36721 ft 507 kts 98°
2026-05-05 07:31 39.03491 118.25806 36727 ft 508 kts 98°
2026-05-05 07:32 39.02084 118.34610 36730 ft 506 kts 98°
2026-05-05 07:32 39.00660 118.43480 36738 ft 507 kts 98°
2026-05-05 07:33 38.99236 118.52300 36742 ft 507 kts 98°
2026-05-05 07:33 38.97809 118.61100 36767 ft 504 kts 98°
2026-05-05 07:34 38.96376 118.69893 36740 ft 505 kts 99°
2026-05-05 07:34 38.94935 118.78691 36736 ft 505 kts 99°
2026-05-05 07:35 38.93493 118.87453 36758 ft 504 kts 99°
2026-05-05 07:35 38.92033 118.96283 36762 ft 505 kts 99°
2026-05-05 07:36 38.90575 119.05048 36757 ft 503 kts 99°
2026-05-05 07:36 38.89112 119.13799 36742 ft 502 kts 99°
2026-05-05 07:37 38.87645 119.22523 36754 ft 502 kts 99°
2026-05-05 07:37 38.86174 119.31234 36751 ft 504 kts 99°
2026-05-05 07:38 38.84684 119.40016 36765 ft 503 kts 99°
2026-05-05 07:38 38.83202 119.48711 36774 ft 501 kts 99°
2026-05-05 07:39 38.81702 119.57465 36769 ft 500 kts 99°
2026-05-05 07:39 38.80207 119.66147 36768 ft 502 kts 100°
2026-05-05 07:40 38.78706 119.74824 36782 ft 500 kts 101°
2026-05-05 07:40 38.77202 119.83482 36782 ft 501 kts 100°
2026-05-05 07:41 38.75758 119.92209 36773 ft 501 kts 100°
2026-05-05 07:41 38.74321 120.00878 36773 ft 500 kts 100°
2026-05-05 07:42 38.72193 120.09284 36781 ft 502 kts 116°
2026-05-05 07:42 38.68199 120.16567 36780 ft 504 kts 134°
2026-05-05 07:43 38.63539 120.23258 36775 ft 504 kts 122°
2026-05-05 07:43 38.60563 120.31194 36801 ft 499 kts 104°
2026-05-05 07:44 38.58882 120.39795 36802 ft 496 kts 101°
2026-05-05 07:44 38.57367 120.48360 36821 ft 495 kts 100°
2026-05-05 07:45 38.55892 120.56953 36802 ft 497 kts 99°
2026-05-05 07:45 38.54475 120.65514 36813 ft 496 kts 100°
2026-05-05 07:46 38.53064 120.74095 36822 ft 494 kts 100°
2026-05-05 07:46 38.51648 120.82716 36809 ft 497 kts 100°
2026-05-05 07:47 38.50238 120.91280 36805 ft 494 kts 100°
2026-05-05 07:47 38.48827 120.99822 36825 ft 495 kts 100°
2026-05-05 07:48 38.47410 121.08372 36817 ft 495 kts 100°
2026-05-05 07:48 38.45984 121.16952 36828 ft 494 kts 99°
2026-05-05 07:49 38.44600 121.25472 36826 ft 493 kts 99°
2026-05-05 07:49 38.43229 121.33977 36825 ft 493 kts 99°
2026-05-05 07:50 38.41850 121.42498 36830 ft 495 kts 99°
2026-05-05 07:50 38.40446 121.51059 36853 ft 491 kts 99°
2026-05-05 07:51 38.39030 121.59555 36842 ft 493 kts 99°
2026-05-05 07:51 38.37604 121.68073 36854 ft 492 kts 100°
2026-05-05 07:52 38.36183 121.76527 36864 ft 490 kts 100°
2026-05-05 07:52 38.34756 121.84982 36883 ft 491 kts 100°
2026-05-05 07:53 38.33310 121.93505 36869 ft 493 kts 100°
2026-05-05 07:53 38.31867 122.01969 36869 ft 492 kts 100°
2026-05-05 07:54 38.30424 122.10394 36872 ft 491 kts 100°
2026-05-05 07:54 38.28966 122.18874 36884 ft 490 kts 100°
2026-05-05 07:55 38.27529 122.27289 36887 ft 487 kts 98°
2026-05-05 07:55 38.26335 122.35735 36907 ft 489 kts 98°
2026-05-05 07:56 38.24354 122.43942 36900 ft 493 kts 115°
2026-05-05 07:56 38.20438 122.51094 36911 ft 495 kts 132°
2026-05-05 07:57 38.15669 122.57332 36907 ft 495 kts 133°
2026-05-05 07:57 38.10874 122.63515 36904 ft 496 kts 134°
2026-05-05 07:58 38.06045 122.69774 36923 ft 493 kts 134°
2026-05-05 07:58 38.01274 122.75980 36929 ft 494 kts 134°
2026-05-05 07:59 37.96480 122.82200 36919 ft 495 kts 134°
2026-05-05 07:59 37.91703 122.88383 36885 ft 493 kts 134°
2026-05-05 08:00 37.86917 122.94562 36950 ft 492 kts 134°
2026-05-05 08:00 37.82140 123.00718 36955 ft 494 kts 134°
2026-05-05 08:01 37.77341 123.06889 36875 ft 494 kts 134°
2026-05-05 08:01 37.74925 123.09991 37059 ft 495 kts 134°
2026-05-05 08:01 37.72532 123.13060 36911 ft 494 kts 134°
2026-05-05 08:02 37.67701 123.19247 36962 ft 495 kts 134°
2026-05-05 08:02 37.62866 123.25427 36993 ft 495 kts 134°
2026-05-05 08:03 37.58049 123.31571 36933 ft 493 kts 134°
2026-05-05 08:03 37.53744 123.38216 36968 ft 496 kts 126°
2026-05-05 08:04 37.49631 123.45135 37004 ft 494 kts 126°
2026-05-05 08:04 37.45511 123.52048 36953 ft 494 kts 126°
2026-05-05 08:05 37.41395 123.58938 36978 ft 495 kts 126°
2026-05-05 08:05 37.37277 123.65813 36969 ft 495 kts 127°
2026-05-05 08:06 37.33136 123.72710 36993 ft 495 kts 127°
2026-05-05 08:06 37.28989 123.79604 36946 ft 495 kts 127°
2026-05-05 08:07 37.24839 123.86486 36965 ft 495 kts 127°
2026-05-05 08:07 37.20760 123.93361 36946 ft 494 kts 122°
2026-05-05 08:08 37.17924 124.01138 36954 ft 491 kts 104°
2026-05-05 08:08 37.17105 124.09598 37022 ft 494 kts 87°
2026-05-05 08:09 37.17370 124.18127 37025 ft 490 kts 85°
2026-05-05 08:09 37.17665 124.26643 37008 ft 493 kts 86°
2026-05-05 08:10 37.17840 124.33743 37007 ft 491 kts 86°
2026-05-05 08:11 37.18249 124.51331 36977 ft 493 kts 87°
2026-05-05 08:11 37.18442 124.59946 37023 ft 496 kts 86°
2026-05-05 08:12 37.18628 124.68524 37017 ft 495 kts 88°
2026-05-05 08:12 37.18810 124.77142 37020 ft 494 kts 88°
2026-05-05 08:13 37.18985 124.85694 37010 ft 492 kts 88°
2026-05-05 08:13 37.19154 124.94263 37006 ft 494 kts 88°
2026-05-05 08:14 37.19317 125.02832 37033 ft 494 kts 88°
2026-05-05 08:14 37.19474 125.11458 37067 ft 496 kts 88°
2026-05-05 08:15 37.19626 125.20070 37077 ft 496 kts 88°
2026-05-05 08:15 37.19770 125.28661 37011 ft 497 kts 88°
2026-05-05 08:16 37.19910 125.37371 37016 ft 498 kts 88°
2026-05-05 08:16 37.20043 125.45997 37024 ft 498 kts 88°
2026-05-05 08:17 37.20170 125.54694 37022 ft 499 kts 88°
2026-05-05 08:17 37.20289 125.63319 37052 ft 497 kts 88°
2026-05-05 08:18 37.20401 125.71966 37003 ft 498 kts 89°
2026-05-05 08:18 37.20509 125.80701 37057 ft 501 kts 89°
2026-05-05 08:19 37.20611 125.89380 37035 ft 500 kts 89°
2026-05-05 08:19 37.20706 125.98054 37088 ft 498 kts 89°
2026-05-05 08:20 37.20795 126.06709 37044 ft 500 kts 89°
2026-05-05 08:20 37.20879 126.15402 37052 ft 502 kts 89°
2026-05-05 08:21 37.20956 126.24149 37052 ft 500 kts 89°
2026-05-05 08:21 37.21027 126.32833 37101 ft 506 kts 89°
2026-05-05 08:22 37.21091 126.41580 37095 ft 500 kts 89°
2026-05-05 08:22 37.21149 126.50319 37054 ft 500 kts 89°
2026-05-05 08:23 37.21199 126.59034 37048 ft 505 kts 89°
2026-05-05 08:23 37.21242 126.67733 37118 ft 502 kts 90°
2026-05-05 08:24 37.21261 126.72101 37007 ft 501 kts 90°
2026-05-05 08:24 37.21279 126.76437 37119 ft 503 kts 90°
2026-05-05 08:24 37.21310 126.85184 37054 ft 501 kts 90°
2026-05-05 08:25 37.21778 126.93896 37062 ft 503 kts 77°
2026-05-05 08:25 37.24167 127.02044 37055 ft 498 kts 59°
2026-05-05 08:26 37.28266 127.08952 37059 ft 495 kts 46°
2026-05-05 08:26 37.32848 127.15436 37107 ft 495 kts 46°
2026-05-05 08:27 37.37363 127.21818 37060 ft 496 kts 46°
2026-05-05 08:27 37.41956 127.28318 37086 ft 493 kts 46°
2026-05-05 08:28 37.46365 127.34865 37054 ft 496 kts 53°
2026-05-05 08:28 37.49393 127.42607 37059 ft 496 kts 72°
2026-05-05 08:29 37.50915 127.51166 37020 ft 504 kts 78°
2026-05-05 08:30 37.52940 127.64025 37027 ft 501 kts 78°
2026-05-05 08:30 37.54301 127.72653 37050 ft 498 kts 78°
2026-05-05 08:31 37.55637 127.81132 37045 ft 502 kts 78°
2026-05-05 08:31 37.56990 127.89745 37042 ft 502 kts 78°
2026-05-05 08:32 37.58330 127.98310 36995 ft 497 kts 78°
2026-05-05 08:32 37.59665 128.06888 37032 ft 503 kts 78°
2026-05-05 08:33 37.61003 128.15520 37053 ft 503 kts 78°
2026-05-05 08:33 37.62330 128.24124 37041 ft 504 kts 78°
2026-05-05 08:34 37.63658 128.32781 37065 ft 502 kts 78°
2026-05-05 08:34 37.64970 128.41377 37079 ft 503 kts 78°
2026-05-05 08:35 37.66273 128.49960 37017 ft 489 kts 78°
2026-05-05 08:35 37.67559 128.58472 37032 ft 503 kts 78°
2026-05-05 08:36 37.68724 128.67181 36997 ft 505 kts 87°
2026-05-05 08:36 37.68238 128.75886 37069 ft 500 kts 104°
2026-05-05 08:37 37.65730 128.83977 37002 ft 500 kts 122°
2026-05-05 08:37 37.62243 128.91527 37053 ft 495 kts 123°
2026-05-05 08:38 37.58730 128.98953 37033 ft 498 kts 123°
2026-05-05 08:38 37.55164 129.06424 37023 ft 498 kts 123°
2026-05-05 08:39 37.51597 129.13855 37000 ft 499 kts 124°
2026-05-05 08:39 37.48003 129.21309 37011 ft 498 kts 124°
2026-05-05 08:40 37.44422 129.28714 36998 ft 499 kts 124°
2026-05-05 08:40 37.40832 129.36119 37002 ft 497 kts 124°
2026-05-05 08:41 37.37205 129.43585 37017 ft 501 kts 124°
2026-05-05 08:41 37.33597 129.50996 36992 ft 502 kts 125°
2026-05-05 08:42 37.29958 129.58452 37011 ft 502 kts 125°
2026-05-05 08:42 37.26330 129.65868 36997 ft 499 kts 125°
2026-05-05 08:43 37.22693 129.73283 37051 ft 502 kts 125°
2026-05-05 08:43 37.19034 129.80731 36963 ft 501 kts 126°
2026-05-05 08:43 37.17203 129.84450 37071 ft 503 kts 125°
2026-05-05 08:44 37.15384 129.88139 37019 ft 502 kts 125°
2026-05-05 08:44 37.11733 129.95537 37041 ft 504 kts 126°
2026-05-05 08:45 37.08047 130.02986 37045 ft 502 kts 126°
2026-05-05 08:45 37.04404 130.10332 37056 ft 502 kts 126°
2026-05-05 08:46 37.00710 130.17764 37016 ft 505 kts 126°
2026-05-05 08:46 36.96996 130.25220 37013 ft 505 kts 126°
2026-05-05 08:47 36.93299 130.32625 37048 ft 506 kts 126°
2026-05-05 08:47 36.89573 130.40073 37041 ft 506 kts 126°
2026-05-05 08:48 36.85856 130.47485 37038 ft 505 kts 126°
2026-05-05 08:48 36.82133 130.54895 37036 ft 504 kts 126°
2026-05-05 08:49 36.78411 130.62283 37035 ft 505 kts 127°
2026-05-05 08:49 36.74680 130.69676 37060 ft 505 kts 127°
2026-05-05 08:50 36.70954 130.77043 37036 ft 508 kts 127°
2026-05-05 08:50 36.67203 130.84447 37029 ft 505 kts 127°
2026-05-05 08:51 36.63455 130.91826 37042 ft 506 kts 127°
2026-05-05 08:51 36.59694 130.99213 37077 ft 509 kts 128°
2026-05-05 08:52 36.55934 131.06586 37017 ft 505 kts 128°
2026-05-05 08:52 36.52145 131.13995 37034 ft 507 kts 128°
2026-05-05 08:53 36.48387 131.21332 37050 ft 506 kts 128°
2026-05-05 08:53 36.44601 131.28703 37041 ft 507 kts 128°
2026-05-05 08:54 36.40817 131.36058 37064 ft 511 kts 127°
2026-05-05 08:54 36.37889 131.44168 37062 ft 523 kts 109°
2026-05-05 08:55 36.36900 131.53098 37082 ft 531 kts 94°
2026-05-05 08:55 36.36661 131.62241 37079 ft 530 kts 94°
2026-05-05 08:56 36.36406 131.71379 37052 ft 532 kts 95°
2026-05-05 08:56 36.36129 131.80516 37058 ft 533 kts 95°
2026-05-05 08:57 36.35836 131.89696 37072 ft 533 kts 95°
2026-05-05 08:57 36.35532 131.98871 37058 ft 533 kts 96°
2026-05-05 08:58 36.35219 132.08009 37085 ft 535 kts 95°
2026-05-05 08:58 36.34894 132.17239 37070 ft 537 kts 95°
2026-05-05 08:59 36.34563 132.26450 37097 ft 536 kts 96°
2026-05-05 08:59 36.34225 132.35638 37091 ft 537 kts 96°
2026-05-05 09:00 36.33879 132.44844 37097 ft 537 kts 96°
2026-05-05 09:00 36.33524 132.54095 37114 ft 533 kts 95°
2026-05-05 09:01 36.33167 132.63211 37083 ft 535 kts 95°
2026-05-05 09:01 36.32798 132.72426 37115 ft 538 kts 96°
2026-05-05 09:02 36.32423 132.81647 37087 ft 536 kts 96°
2026-05-05 09:02 36.32039 132.90897 37098 ft 540 kts 96°
2026-05-05 09:03 36.31647 133.00156 37110 ft 541 kts 96°
2026-05-05 09:03 36.31248 133.09439 37143 ft 542 kts 96°
2026-05-05 09:04 36.30840 133.18753 37126 ft 542 kts 96°
2026-05-05 09:04 36.30425 133.28052 37138 ft 542 kts 97°
2026-05-05 09:05 36.30003 133.37350 37125 ft 545 kts 97°
2026-05-05 09:05 36.29572 133.46687 37145 ft 543 kts 97°
2026-05-05 09:06 36.29137 133.55978 37125 ft 542 kts 97°
2026-05-05 09:06 36.28691 133.65295 37132 ft 543 kts 97°
2026-05-05 09:06 36.28467 133.69945 36996 ft 544 kts 97°
2026-05-05 09:07 36.28243 133.74551 37134 ft 540 kts 97°
2026-05-05 09:07 36.28013 133.79221 37271 ft 542 kts 97°
2026-05-05 09:07 36.27782 133.83879 37129 ft 544 kts 98°
2026-05-05 09:08 36.27317 133.93149 37140 ft 542 kts 97°
2026-05-05 09:08 36.26844 134.02429 37147 ft 545 kts 97°
2026-05-05 09:09 36.26360 134.11798 37151 ft 544 kts 97°
2026-05-05 09:09 36.25871 134.21117 37114 ft 545 kts 97°
2026-05-05 09:10 36.25371 134.30484 37152 ft 546 kts 97°
2026-05-05 09:10 36.24864 134.39850 37160 ft 550 kts 97°
2026-05-05 09:11 36.24399 134.49269 37152 ft 553 kts 92°
2026-05-05 09:11 36.25006 134.58745 37139 ft 559 kts 85°
2026-05-05 09:12 36.25848 134.68216 37107 ft 553 kts 86°
2026-05-05 09:12 36.26678 134.77684 37122 ft 555 kts 86°
2026-05-05 09:13 36.27503 134.87204 37138 ft 555 kts 86°
2026-05-05 09:13 36.28313 134.96672 37131 ft 555 kts 86°
2026-05-05 09:14 36.29116 135.06149 37145 ft 553 kts 86°
2026-05-05 09:14 36.29913 135.15669 37123 ft 561 kts 86°
2026-05-05 09:15 36.30700 135.25151 37130 ft 554 kts 86°
2026-05-05 09:15 36.31485 135.34711 37142 ft 559 kts 86°
2026-05-05 09:16 36.32258 135.44223 37162 ft 557 kts 86°
2026-05-05 09:16 36.33030 135.53813 37170 ft 558 kts 86°
2026-05-05 09:17 36.33790 135.63362 37165 ft 564 kts 86°
2026-05-05 09:17 36.34549 135.72969 37119 ft 557 kts 87°
2026-05-05 09:18 36.35296 135.82548 37148 ft 563 kts 87°
2026-05-05 09:18 36.36035 135.92127 37150 ft 558 kts 86°
2026-05-05 09:19 36.36767 136.01698 37156 ft 559 kts 86°
2026-05-05 09:19 36.37493 136.11307 37179 ft 561 kts 86°
2026-05-05 09:20 36.38211 136.20900 37160 ft 562 kts 87°
2026-05-05 09:20 36.38921 136.30499 37160 ft 556 kts 87°
2026-05-05 09:21 36.39620 136.40070 37172 ft 564 kts 86°
2026-05-05 09:21 36.40553 136.49707 37167 ft 567 kts 84°
2026-05-05 09:22 36.41578 136.59309 37145 ft 559 kts 84°
2026-05-05 09:22 36.42585 136.68929 37143 ft 564 kts 84°
2026-05-05 09:23 36.43580 136.78574 37150 ft 562 kts 85°
2026-05-05 09:23 36.44562 136.88208 37185 ft 566 kts 84°
2026-05-05 09:24 36.45538 136.97871 37166 ft 564 kts 85°
2026-05-05 09:24 36.46502 137.07526 37186 ft 568 kts 84°
2026-05-05 09:25 36.47453 137.17128 37135 ft 561 kts 84°
2026-05-05 09:25 36.48401 137.26796 37141 ft 567 kts 85°
2026-05-05 09:26 36.49344 137.36481 37141 ft 565 kts 85°
2026-05-05 09:26 36.50280 137.46201 37156 ft 572 kts 85°
2026-05-05 09:27 36.51228 137.56110 37203 ft 566 kts 84°
2026-05-05 09:27 36.52141 137.65744 37226 ft 567 kts 85°
2026-05-05 09:28 36.53056 137.75481 37122 ft 567 kts 85°
2026-05-05 09:28 36.53956 137.85155 37349 ft 568 kts 85°
2026-05-05 09:28 36.54409 137.90062 37125 ft 567 kts 85°
2026-05-05 09:29 36.54857 137.94937 37197 ft 574 kts 85°
2026-05-05 09:29 36.55753 138.04733 37193 ft 574 kts 86°
2026-05-05 09:30 36.56646 138.14584 37183 ft 569 kts 85°
2026-05-05 09:30 36.57521 138.24352 37192 ft 575 kts 85°
2026-05-05 09:30 36.57957 138.29246 37352 ft 573 kts 85°
2026-05-05 09:31 36.58390 138.34119 37151 ft 570 kts 86°
2026-05-05 09:31 36.59246 138.43843 37197 ft 573 kts 85°
2026-05-05 09:32 36.60103 138.53668 37196 ft 568 kts 85°
2026-05-05 09:32 36.60952 138.63498 37203 ft 571 kts 85°
2026-05-05 09:33 36.61796 138.73377 37183 ft 577 kts 86°
2026-05-05 09:33 36.62625 138.83154 37192 ft 567 kts 85°
2026-05-05 09:34 36.63447 138.92967 37197 ft 577 kts 86°
2026-05-05 09:34 36.64262 139.02771 37056 ft 566 kts 86°
2026-05-05 09:34 36.64664 139.07648 36265 ft 568 kts 86°
2026-05-05 09:35 36.65060 139.12488 35502 ft 570 kts 86°
2026-05-05 09:35 36.65858 139.22304 34151 ft 575 kts 86°
2026-05-05 09:35 36.66258 139.27263 33282 ft 580 kts 86°
2026-05-05 09:36 36.66661 139.32285 32433 ft 584 kts 85°
2026-05-05 09:36 36.67059 139.37282 31544 ft 588 kts 85°
2026-05-05 09:36 36.67458 139.42297 30706 ft 587 kts 85°
2026-05-05 09:36 36.67857 139.47340 30216 ft 579 kts 84°
2026-05-05 09:37 36.68244 139.52260 29778 ft 572 kts 84°
2026-05-05 09:37 36.68630 139.57188 29177 ft 566 kts 84°
2026-05-05 09:37 36.69001 139.61971 28543 ft 561 kts 84°
2026-05-05 09:37 36.69373 139.66769 28051 ft 554 kts 85°
2026-05-05 09:38 36.69740 139.71545 27506 ft 548 kts 85°
2026-05-05 09:38 36.70097 139.76207 26934 ft 542 kts 84°
2026-05-05 09:38 36.70449 139.80839 26380 ft 536 kts 84°
2026-05-05 09:38 36.70796 139.85416 25754 ft 530 kts 84°
2026-05-05 09:39 36.71136 139.89929 25226 ft 523 kts 84°
2026-05-05 09:39 36.71470 139.94391 24646 ft 517 kts 84°
2026-05-05 09:39 36.71802 139.98834 24085 ft 508 kts 84°
2026-05-05 09:39 36.72122 140.03152 23526 ft 502 kts 84°
2026-05-05 09:40 36.72436 140.07405 22980 ft 493 kts 84°
2026-05-05 09:40 36.72748 140.11655 22513 ft 484 kts 84°
2026-05-05 09:40 36.72966 140.15773 21969 ft 477 kts 89°
2026-05-05 09:40 36.72715 140.19861 21432 ft 471 kts 99°
2026-05-05 09:41 36.71957 140.23769 20901 ft 464 kts 109°
2026-05-05 09:41 36.70720 140.27425 20350 ft 458 kts 118°
2026-05-05 09:41 36.69049 140.30722 19805 ft 451 kts 128°
2026-05-05 09:41 36.66962 140.33620 19272 ft 443 kts 139°
2026-05-05 09:42 36.64616 140.35968 18793 ft 433 kts 147°
2026-05-05 09:42 36.62109 140.37984 18716 ft 415 kts 151°
2026-05-05 09:42 36.59664 140.39693 18708 ft 397 kts 154°
2026-05-05 09:42 36.57193 140.41325 18715 ft 415 kts 155°
2026-05-05 09:43 36.54565 140.42908 18510 ft 419 kts 158°
2026-05-05 09:43 36.51913 140.44365 18020 ft 416 kts 159°
2026-05-05 09:43 36.49264 140.45734 17483 ft 412 kts 160°
2026-05-05 09:43 36.46616 140.47046 16972 ft 409 kts 161°
2026-05-05 09:44 36.43962 140.48322 16363 ft 406 kts 161°
2026-05-05 09:44 36.41348 140.49545 15850 ft 403 kts 161°
2026-05-05 09:44 36.38733 140.50751 15312 ft 400 kts 161°
2026-05-05 09:44 36.36131 140.51936 14755 ft 397 kts 162°
2026-05-05 09:45 36.33589 140.53294 14262 ft 394 kts 153°
2026-05-05 09:45 36.31345 140.55200 14228 ft 396 kts 141°
2026-05-05 09:45 36.29358 140.57579 14188 ft 400 kts 134°
2026-05-05 09:45 36.27461 140.60043 14144 ft 392 kts 134°
2026-05-05 09:46 36.25602 140.62482 13644 ft 390 kts 134°
2026-05-05 09:46 36.23732 140.64941 12974 ft 392 kts 133°
2026-05-05 09:46 36.21886 140.67354 12511 ft 388 kts 137°
2026-05-05 09:46 36.19806 140.69415 12326 ft 370 kts 149°
2026-05-05 09:47 36.17592 140.70789 12083 ft 346 kts 164°
2026-05-05 09:47 36.15312 140.71300 11857 ft 322 kts 185°
2026-05-05 09:47 36.13223 140.70789 11677 ft 297 kts 208°
2026-05-05 09:47 36.11533 140.69479 11336 ft 282 kts 227°
2026-05-05 09:48 36.10355 140.67622 10824 ft 275 kts 242°
2026-05-05 09:48 36.09481 140.65565 10285 ft 271 kts 249°
2026-05-05 09:48 36.08801 140.63396 9735 ft 269 kts 253°
2026-05-05 09:48 36.08234 140.61211 9188 ft 269 kts 255°
2026-05-05 09:49 36.07696 140.59003 8606 ft 270 kts 255°
2026-05-05 09:49 36.07162 140.56787 8105 ft 268 kts 255°
2026-05-05 09:49 36.06636 140.54608 7628 ft 267 kts 255°
2026-05-05 09:49 36.06104 140.52402 7236 ft 267 kts 255°
2026-05-05 09:50 36.05576 140.50217 6896 ft 267 kts 255°
2026-05-05 09:50 36.05045 140.48021 6583 ft 266 kts 255°
2026-05-05 09:50 36.04516 140.45833 6229 ft 266 kts 255°
2026-05-05 09:50 36.03991 140.43666 5915 ft 265 kts 254°
2026-05-05 09:51 36.03467 140.41504 5690 ft 260 kts 254°
2026-05-05 09:51 36.02958 140.39406 5642 ft 249 kts 254°
2026-05-05 09:51 36.02457 140.37343 5171 ft 257 kts 253°
2026-05-05 09:51 36.01937 140.35204 4734 ft 261 kts 252°
2026-05-05 09:52 36.01368 140.33073 4491 ft 255 kts 242°
2026-05-05 09:52 36.00475 140.31279 4378 ft 246 kts 233°
2026-05-05 09:52 35.99472 140.29575 4110 ft 244 kts 232°
2026-05-05 09:52 35.98369 140.28023 3848 ft 239 kts 214°
2026-05-05 09:53 35.96843 140.27249 3534 ft 236 kts 185°
2026-05-05 09:53 35.95248 140.27495 3235 ft 231 kts 161°
2026-05-05 09:53 35.93800 140.28293 2955 ft 230 kts 154°
2026-05-05 09:53 35.92419 140.29242 2691 ft 223 kts 151°
2026-05-05 09:54 35.91090 140.30199 2434 ft 219 kts 150°
2026-05-05 09:54 35.89817 140.31119 2171 ft 200 kts 151°
2026-05-05 09:54 35.88660 140.31941 1945 ft 185 kts 152°
2026-05-05 09:54 35.87587 140.32715 1729 ft 170 kts 150°
2026-05-05 09:55 35.86620 140.33415 1538 ft 154 kts 150°
2026-05-05 09:55 35.85725 140.34061 1351 ft 144 kts 150°
2026-05-05 09:55 35.84894 140.34656 1143 ft 132 kts 150°
2026-05-05 09:55 35.84108 140.35229 959 ft 130 kts 150°
2026-05-05 09:56 35.83332 140.35783 786 ft 128 kts 150°
2026-05-05 09:56 35.82554 140.36354 627 ft 132 kts 150°
2026-05-05 09:56 35.81763 140.36916 464 ft 129 kts 149°
2026-05-05 09:56 35.80975 140.37477 291 ft 130 kts 150°
2026-05-05 09:57 35.80190 140.38045 147 ft 126 kts 149°
2026-05-05 09:57 35.79597 140.38474 143 ft 66 kts 149°
2026-05-05 09:57 35.79316 140.38676 140 ft 40 kts 149°
2026-05-05 09:57 35.79090 140.38841 140 ft 34 kts 149°
2026-05-05 09:58 35.78900 140.38930 140 ft 26 kts 171°
2026-05-05 09:58 35.78776 140.38947 141 ft 13 kts 174°
2026-05-05 09:58 35.78690 140.38957 143 ft 11 kts 174°
2026-05-05 09:58 35.78616 140.38966 143 ft 10 kts 171°
2026-05-05 09:59 35.78550 140.39002 143 ft 11 kts 142°
2026-05-05 09:59 35.78492 140.39067 143 ft 11 kts 136°
2026-05-05 09:59 35.78424 140.39121 143 ft 12 kts 161°
2026-05-05 09:59 35.78337 140.39148 143 ft 13 kts 165°
2026-05-05 10:00 35.78246 140.39178 145 ft 13 kts 164°
2026-05-05 10:00 35.78159 140.39192 146 ft 11 kts 199°
2026-05-05 10:00 35.78106 140.39131 148 ft 9 kts 217°
2026-05-05 10:00 35.78049 140.39125 149 ft 9 kts 157°
2026-05-05 10:01 35.77982 140.39174 150 ft 12 kts 135°
2026-05-05 10:01 35.77939 140.39267 149 ft 15 kts 115°
2026-05-05 10:01 35.77890 140.39386 149 ft 15 kts 117°
2026-05-05 10:01 35.77837 140.39487 150 ft 13 kts 137°
2026-05-05 10:02 35.77763 140.39545 150 ft 12 kts 149°
2026-05-05 10:02 35.77687 140.39600 150 ft 14 kts 149°
2026-05-05 10:02 35.77593 140.39668 149 ft 16 kts 148°
2026-05-05 10:02 35.77485 140.39746 148 ft 18 kts 149°
2026-05-05 10:03 35.77378 140.39822 147 ft 17 kts 150°
2026-05-05 10:03 35.77275 140.39899 145 ft 17 kts 148°
2026-05-05 10:03 35.77173 140.39972 144 ft 16 kts 149°
2026-05-05 10:03 35.77067 140.39995 143 ft 15 kts 197°
2026-05-05 10:04 35.76971 140.39944 143 ft 14 kts 204°
2026-05-05 10:04 35.76879 140.39897 143 ft 13 kts 192°
2026-05-05 10:04 35.76785 140.39890 143 ft 13 kts 188°
2026-05-05 10:04 35.76701 140.39830 141 ft 15 kts 222°
2026-05-05 10:05 35.76606 140.39740 138 ft 19 kts 204°
2026-05-05 10:05 35.76476 140.39670 137 ft 21 kts 204°
2026-05-05 10:05 35.76347 140.39598 138 ft 18 kts 204°
2026-05-05 10:05 35.76235 140.39537 140 ft 16 kts 204°
2026-05-05 10:06 35.76133 140.39481 140 ft 15 kts 204°
2026-05-05 10:06 35.76035 140.39426 140 ft 14 kts 204°
2026-05-05 10:06 35.75943 140.39375 140 ft 14 kts 204°
2026-05-05 10:06 35.75851 140.39323 140 ft 15 kts 204°
2026-05-05 10:07 35.75763 140.39252 140 ft 16 kts 230°
2026-05-05 10:07 35.75695 140.39130 137 ft 18 kts 225°
2026-05-05 10:07 35.75591 140.39059 139 ft 16 kts 205°
2026-05-05 10:07 35.75496 140.39006 140 ft 14 kts 204°
2026-05-05 10:08 35.75409 140.38959 141 ft 12 kts 204°
2026-05-05 10:08 35.75345 140.38899 142 ft 10 kts 247°
2026-05-05 10:08 35.75359 140.38814 143 ft 11 kts 297°
2026-05-05 10:08 35.75409 140.38702 143 ft 16 kts 302°
2026-05-05 10:09 35.75492 140.38619 144 ft 14 kts 328°
2026-05-05 10:09 35.75580 140.38554 144 ft 14 kts 329°
2026-05-05 10:09 35.75671 140.38490 143 ft 14 kts 328°
2026-05-05 10:09 35.75759 140.38426 143 ft 14 kts 329°
2026-05-05 10:10 35.75846 140.38364 143 ft 14 kts 329°
2026-05-05 10:10 35.75927 140.38304 145 ft 13 kts 329°
2026-05-05 10:10 35.76005 140.38248 146 ft 13 kts 329°
2026-05-05 10:10 35.76100 140.38179 146 ft 18 kts 329°
2026-05-05 10:11 35.76223 140.38091 145 ft 20 kts 329°
2026-05-05 10:11 35.76344 140.38003 143 ft 20 kts 329°
2026-05-05 10:11 35.76466 140.37915 141 ft 19 kts 329°
2026-05-05 10:11 35.76561 140.37849 140 ft 10 kts 344°
2026-05-05 10:12 35.76617 140.37883 141 ft 9 kts 55°
2026-05-05 10:12 35.76651 140.37950 140 ft 9 kts 58°
2026-05-05 10:12 35.76701 140.37993 140 ft 8 kts
2026-05-05 10:12 35.76754 140.37962 141 ft 8 kts 329°
2026-05-05 10:13 35.76808 140.37924 141 ft 9 kts 330°
2026-05-05 10:13 35.76864 140.37885 141 ft 6 kts 330°
2026-05-05 10:13 35.76900 140.37898 141 ft 5 kts 54°
2026-05-05 10:13 35.76918 140.37935 142 ft 3 kts 59°
2026-05-05 10:14 35.76926 140.37950 143 ft 2 kts 60°
2026-05-05 10:14 35.76933 140.37967 144 ft 1 kts 60°
2026-05-05 10:14 35.76936 140.37973 144 ft 0 kts 60°